GFSWCAN_850_thetae_030.txt.gz
Theta_e
296 296 296 297 304 308 310 312 315 316 317 318 307 300 301 302 303 302 304 306 305 304 306 306 304 305 304 303 299 302 301 301 299 299 299 300 298 301 301 300 300 300 297 298 298 297 300 301 301 300 299 300 301 301
295 295 295 296 296 297 307 307 306 312 314 316 316 308 303 301 302 301 303 307 311 309 305 307 306 304 304 304 304 303 302 302 302 298 297 294 300 296 300 301 299 301 299 298 299 299 301 301 301 301 300 301 301 299
294 295 295 295 295 295 296 296 308 305 310 312 314 316 310 305 302 302 303 308 311 309 309 307 308 307 305 304 304 304 303 304 303 303 302 297 298 296 298 299 300 300 301 299 299 299 300 301 301 301 301 301 299 297
294 294 294 294 294 294 295 295 297 305 306 308 311 311 313 313 310 305 303 307 310 307 305 309 307 306 305 303 303 303 303 303 303 303 302 294 297 300 296 299 298 301 299 298 298 299 300 301 301 301 301 299 297 296
294 294 294 294 294 294 294 294 294 295 304 307 307 309 309 310 310 306 305 307 308 307 303 306 307 307 305 304 302 302 302 303 303 302 300 298 300 299 297 296 296 300 300 298 300 300 300 300 300 301 299 297 296 295
293 293 293 293 293 293 293 293 293 294 295 300 306 305 307 308 307 306 305 307 304 303 304 297 303 303 303 302 302 302 302 302 302 302 301 301 301 300 296 294 299 301 301 301 300 300 300 300 300 299 297 296 295 294
293 293 293 293 293 293 293 293 293 293 294 295 300 304 306 308 308 306 305 306 305 302 300 301 300 302 302 301 302 301 301 301 301 301 301 300 300 301 292 298 300 302 301 301 301 300 300 300 299 298 296 296 294 293
294 295 295 295 295 295 294 295 297 296 295 297 300 304 304 306 306 304 306 304 302 301 301 300 297 300 301 301 301 301 301 302 302 302 300 300 300 300 299 300 301 301 301 301 301 301 300 299 298 298 296 294 294 293
296 297 297 297 298 297 296 294 299 298 297 299 300 305 307 306 304 303 305 303 301 301 301 299 300 295 301 301 301 301 301 297 301 299 300 299 296 299 301 300 300 301 300 301 301 301 300 299 298 297 295 294 293 293
298 298 298 298 299 298 298 296 296 298 298 299 300 303 304 304 303 304 302 301 301 302 301 301 300 295 300 300 301 300 301 294 300 299 299 299 299 300 301 302 301 300 301 301 300 300 299 298 298 296 294 293 293 292
298 298 298 298 298 298 298 299 296 299 300 300 301 303 302 303 303 302 301 301 301 300 301 301 301 298 299 300 301 301 298 299 298 296 298 296 297 298 302 302 302 301 300 300 300 301 300 298 296 295 294 293 292 292
298 297 297 298 299 299 299 299 298 298 300 300 301 301 302 301 299 300 301 300 300 300 300 301 300 300 301 302 302 301 301 299 298 297 296 298 296 302 301 302 302 301 301 300 300 300 298 296 295 294 293 293 292 291
296 298 298 298 298 299 299 299 299 298 299 300 300 300 300 299 299 301 299 299 299 299 300 300 299 301 300 301 302 301 301 300 297 297 298 297 300 301 301 301 301 301 300 300 299 299 297 296 295 293 293 292 291 291
296 297 298 298 299 299 299 300 300 299 299 300 299 296 295 298 298 298 296 296 300 300 300 300 300 300 300 300 300 302 299 297 294 295 296 297 302 302 301 301 301 301 300 300 299 297 296 296 294 293 292 292 291 291
297 298 298 298 299 299 299 300 300 300 299 299 298 297 293 298 299 300 300 299 300 301 300 299 299 300 299 300 299 299 299 297 296 297 296 301 302 301 300 300 301 301 300 300 298 296 296 295 293 293 292 291 291 290
298 299 299 299 299 299 299 300 300 300 299 299 297 297 297 297 298 298 299 300 300 300 300 299 299 299 300 299 300 298 297 296 297 296 300 304 302 300 301 300 301 301 300 299 297 296 296 294 293 293 292 291 291 291
299 300 300 300 300 300 299 300 300 301 299 297 297 299 298 299 299 299 300 300 301 300 300 299 300 300 299 300 297 295 296 296 299 300 304 306 301 301 301 301 300 300 300 298 296 296 296 294 293 293 292 292 291 291
300 300 301 300 300 300 300 300 300 298 297 298 296 299 299 300 300 299 300 300 301 300 300 299 300 300 301 298 296 296 298 300 301 302 304 301 301 301 300 301 301 301 300 297 296 296 295 293 293 293 292 291 291 291
300 301 301 301 300 300 301 301 300 297 298 298 299 299 299 299 300 300 300 300 301 301 301 300 300 302 300 297 297 301 301 301 302 304 303 302 301 300 300 301 301 300 298 297 296 296 295 293 293 292 292 291 291 290
300 301 301 302 300 301 299 298 298 299 296 298 299 299 299 299 300 300 300 300 300 300 301 300 301 301 300 302 303 303 303 303 302 302 302 302 301 300 301 302 301 300 298 297 296 295 294 293 293 292 292 291 291 291
300 300 301 301 301 301 300 297 297 298 299 299 299 299 300 299 300 300 300 301 301 301 301 301 301 301 301 302 302 302 302 301 302 302 301 301 301 300 300 300 300 299 298 296 296 295 294 293 293 292 291 291 291 290
300 300 300 301 301 298 299 297 298 298 298 299 298 299 298 298 299 300 300 300 300 301 301 301 301 301 301 301 301 301 301 301 301 301 302 303 301 300 300 299 299 298 298 297 296 295 294 293 292 292 291 291 290 290
301 301 300 300 297 297 296 297 297 296 298 297 299 298 298 298 299 300 300 300 301 300 301 301 301 301 301 301 301 301 301 301 301 301 302 301 300 300 300 299 299 298 298 296 296 295 294 293 292 291 291 290 290 290
299 300 299 297 296 296 295 295 297 297 297 299 300 299 297 297 298 298 299 299 300 300 301 301 301 301 301 300 300 300 300 300 301 301 300 300 300 299 299 299 298 298 297 297 295 294 293 292 292 291 291 290 290 290
298 297 297 297 296 295 296 297 298 298 298 299 297 296 297 298 299 300 298 298 299 299 300 300 300 300 299 300 300 299 299 300 300 300 300 300 299 299 299 298 298 297 297 295 295 294 293 292 291 291 290 290 290 290
297 295 296 294 294 295 295 297 296 296 297 298 297 296 296 297 297 295 293 298 298 298 298 299 299 299 298 299 299 299 299 299 299 299 299 299 299 299 299 298 297 296 295 295 294 293 292 292 291 291 290 290 290 290
296 295 296 296 296 296 295 295 296 295 297 296 297 296 296 296 294 293 297 297 297 298 298 299 299 299 299 299 299 299 299 299 299 299 299 299 299 299 298 298 297 296 295 295 293 292 292 291 291 290 290 290 289 289
296 296 297 296 296 296 295 295 296 296 295 296 295 295 296 295 293 296 296 296 297 298 297 296 296 296 298 299 298 298 298 298 298 298 298 297 297 297 297 296 295 295 294 294 293 292 291 291 290 290 289 289 289 289
295 295 296 291 295 296 293 295 294 296 296 295 295 294 294 297 296 296 297 298 298 299 295 294 294 294 295 296 297 297 297 297 297 296 296 296 296 295 295 295 295 294 293 292 291 291 291 290 290 289 289 289 289 288
296 296 295 294 290 293 294 295 295 296 297 296 296 295 294 295 296 296 296 296 293 293 293 293 293 293 293 294 294 295 295 295 296 296 295 294 294 294 294 294 293 292 291 291 291 291 290 290 289 288 288 288 288 287
296 295 293 293 293 293 293 294 294 294 294 295 295 295 295 295 294 293 292 292 291 292 292 292 292 292 292 293 293 293 293 293 293 293 293 293 293 293 293 292 291 291 290 290 290 290 289 289 289 288 288 287 287 287
295 294 292 292 293 293 294 294 294 294 294 294 293 293 293 292 292 291 290 291 291 291 291 292 291 291 292 292 292 292 292 292 292 292 292 292 292 291 291 290 290 290 289 289 289 288 289 289 288 288 287 287 286 286
293 292 292 293 293 294 293 294 293 293 293 292 292 293 293 293 292 290 289 290 290 291 291 291 291 291 291 291 291 290 290 290 291 291 291 290 291 291 291 290 290 290 289 289 289 288 288 288 287 287 286 286 286 286

GFSWCAN_850_thetae_033.txt.gz
Theta_e
297 297 297 297 297 297 298 303 301 304 313 316 316 315 304 305 305 303 303 306 308 308 309 307 306 305 303 303 300 301 301 300 298 299 299 300 299 301 300 300 300 300 298 298 298 296 301 301 300 300 300 300 300 301
296 296 296 296 296 296 296 296 297 300 300 310 314 315 315 310 306 305 302 304 308 311 311 311 308 306 305 304 304 303 301 301 301 298 297 295 300 295 300 301 298 301 301 298 299 300 300 301 301 301 300 300 301 299
295 295 296 296 296 296 296 296 296 296 301 302 305 311 312 312 313 313 307 305 307 310 311 310 310 309 307 305 304 304 302 303 302 302 300 297 298 296 300 299 298 299 300 298 301 299 299 300 302 301 300 301 300 298
294 294 295 295 295 295 296 296 295 295 296 301 305 305 308 308 309 310 309 308 308 308 305 309 309 308 308 306 305 303 303 302 302 302 302 298 300 300 297 299 298 301 299 300 298 299 300 300 300 300 300 301 300 298
294 294 294 294 294 294 294 295 295 294 295 295 303 307 306 305 307 307 307 308 307 306 302 307 309 309 307 306 304 303 302 303 302 302 299 297 300 300 298 295 294 299 298 300 301 301 300 300 300 300 300 300 298 297
293 293 293 293 293 293 293 293 293 293 294 294 295 302 306 306 305 306 307 306 305 303 303 297 303 304 304 304 303 303 302 302 303 302 301 302 301 301 292 293 297 302 302 302 301 301 300 300 300 300 300 298 297 295
293 292 293 293 294 294 294 293 293 293 293 293 294 295 302 304 306 305 306 305 305 305 303 300 301 302 302 301 302 301 301 301 302 302 300 300 300 301 288 293 301 302 302 302 301 300 299 300 300 300 299 298 296 294
292 293 294 295 295 295 295 295 294 294 294 295 296 296 298 307 305 304 304 306 305 303 301 298 297 301 301 301 301 301 301 301 301 301 300 299 300 299 293 299 301 302 302 302 302 301 301 300 300 299 298 297 295 294
294 295 295 296 297 297 297 297 295 295 300 299 299 299 300 304 305 304 303 305 304 303 301 299 300 295 300 300 300 300 301 297 300 299 299 299 295 298 300 300 301 302 302 303 301 301 300 300 299 298 297 295 294 293
296 297 298 299 299 299 299 298 297 296 299 299 299 299 303 303 303 303 304 302 301 302 301 301 301 299 301 299 300 300 300 293 300 298 299 300 299 300 301 302 304 303 302 301 300 300 299 299 299 298 297 295 293 293
298 299 300 299 299 299 299 299 298 297 298 299 299 301 302 303 303 303 302 300 301 301 300 301 301 302 300 300 299 300 300 299 299 296 298 298 298 297 303 304 304 303 302 301 301 301 300 300 300 298 296 294 293 292
299 299 299 299 298 299 299 299 299 298 298 300 300 301 300 301 301 300 301 300 301 302 301 301 301 301 301 301 301 300 302 299 299 295 299 298 297 302 303 303 303 302 301 301 300 300 300 300 299 297 295 294 293 292
299 299 299 299 299 298 298 299 299 299 298 299 300 300 299 299 298 300 300 300 300 299 300 300 299 300 300 300 301 301 302 300 296 298 299 298 298 302 303 303 302 301 301 300 300 299 299 299 297 295 295 294 292 291
299 299 299 299 299 299 298 299 299 300 299 298 299 298 297 295 298 296 295 295 299 299 300 300 300 300 300 300 300 304 300 298 297 298 297 296 301 302 301 301 301 301 301 300 300 299 299 298 296 295 294 293 291 291
298 298 298 298 298 298 299 299 299 300 300 299 299 297 294 296 298 299 299 299 300 300 300 299 299 299 299 300 300 301 299 297 296 296 296 300 303 304 305 305 303 300 300 300 300 299 298 296 296 295 293 292 292 291
297 297 298 298 298 299 298 299 299 300 299 298 298 297 296 294 297 297 298 299 300 300 300 300 297 298 298 300 300 297 296 296 296 295 298 303 305 304 305 304 302 300 300 299 299 299 297 296 295 294 293 292 292 291
297 298 298 298 298 299 299 299 299 300 299 297 297 299 298 297 298 298 298 299 299 299 296 299 299 299 298 297 299 298 296 296 298 300 301 303 304 304 305 301 300 300 300 299 299 298 296 296 295 294 293 292 292 291
297 298 298 298 299 299 300 300 300 299 297 297 296 298 298 299 299 299 299 299 299 299 300 300 299 299 295 293 296 296 299 301 301 301 301 302 304 303 304 301 300 300 300 300 299 298 296 296 295 294 293 292 292 291
297 298 298 299 299 301 300 300 300 297 297 298 299 299 299 299 299 299 299 299 299 300 300 300 300 298 299 300 300 300 300 300 300 301 303 303 301 302 303 303 300 299 300 300 300 298 297 296 295 294 293 292 292 291
298 298 298 299 300 301 299 299 299 300 299 299 298 299 298 299 299 299 299 299 299 299 300 300 300 300 300 300 301 301 301 301 301 301 302 303 302 303 302 301 300 300 300 300 299 297 296 295 295 293 293 292 292 291
299 299 299 300 300 301 300 298 297 297 299 299 300 298 299 298 298 298 298 299 299 299 300 300 300 300 300 300 300 300 300 300 300 301 301 301 301 302 302 302 301 300 300 300 298 297 296 295 295 293 293 292 291 291
299 299 300 300 301 299 299 298 298 298 298 297 297 298 298 298 298 298 299 299 299 299 300 300 300 300 300 300 300 300 300 300 300 300 300 300 301 301 301 301 301 300 300 300 298 297 296 295 295 293 293 292 291 291
300 300 300 300 300 297 296 297 297 297 298 298 297 296 297 297 298 299 299 299 300 300 300 300 300 300 300 300 300 300 300 300 300 300 300 301 301 301 301 301 301 299 299 299 298 297 296 295 294 293 292 291 291 290
300 300 299 298 299 295 295 295 297 297 297 298 299 298 298 298 298 298 299 299 299 300 300 300 300 300 300 300 300 300 300 300 300 300 300 300 300 300 300 300 301 299 299 299 298 297 295 295 294 293 292 291 291 290
298 296 297 296 296 295 296 297 298 298 298 299 298 296 296 297 299 299 298 298 299 299 300 300 299 299 299 299 299 299 299 300 300 299 300 299 299 299 300 300 300 299 299 298 297 296 295 295 293 293 292 291 291 290
299 297 296 295 295 296 295 297 297 298 297 298 298 296 297 298 298 296 294 297 298 298 298 298 298 297 298 298 298 298 298 298 298 298 299 299 299 299 299 299 298 298 298 298 297 296 295 294 293 292 292 291 291 290
296 295 296 295 295 295 295 295 296 296 297 297 296 296 295 295 293 293 296 297 297 297 298 298 298 298 298 298 298 299 299 299 298 298 298 298 298 298 298 298 298 298 298 297 296 295 295 294 293 292 291 291 290 290
296 295 296 295 295 296 295 295 296 297 296 296 296 295 293 294 294 296 297 297 297 298 299 299 296 294 295 296 297 298 298 298 298 297 297 297 297 297 297 296 297 297 296 296 295 294 294 293 292 291 291 290 290 290
295 296 296 293 295 296 295 296 295 296 296 296 295 294 293 296 296 297 296 297 298 298 297 295 293 294 294 295 296 297 297 297 297 297 297 296 296 296 297 296 295 295 294 294 294 293 292 292 291 291 290 290 289 289
295 296 294 294 292 294 294 295 295 296 296 296 296 295 295 296 296 296 296 296 296 294 293 292 292 292 293 293 294 294 294 294 294 295 295 294 295 295 294 295 294 295 294 293 292 292 291 291 290 290 289 289 289 289
295 295 293 292 293 293 294 294 294 295 295 295 295 295 295 295 295 295 294 293 292 292 291 291 291 291 292 292 292 292 293 293 293 293 294 293 294 294 293 294 293 292 292 291 291 291 291 290 290 289 289 288 288 288
294 293 292 293 292 293 293 294 294 294 293 293 293 293 293 293 293 292 291 291 291 291 291 291 291 291 291 291 291 291 291 292 292 292 292 292 292 292 292 292 291 291 291 290 290 290 290 290 289 289 289 288 288 287
293 292 292 293 293 293 293 293 293 292 293 292 293 293 293 293 292 291 290 290 291 290 290 290 291 291 291 291 291 290 290 290 291 291 290 291 291 291 291 290 290 290 290 289 289 289 289 289 289 288 288 288 287 287

GFSWCAN_850_thetae_036.txt.gz
Theta_e
297 297 297 297 297 297 297 297 298 298 298 299 312 313 316 315 311 312 307 306 309 310 310 308 306 305 303 303 300 301 300 299 298 298 298 299 298 301 300 299 300 300 298 297 297 296 301 300 299 300 300 300 300 300
296 296 296 296 296 296 297 297 297 298 298 298 299 306 311 313 313 314 313 312 311 311 311 311 311 309 306 305 304 302 301 301 301 297 295 295 300 295 299 301 297 299 300 298 298 299 300 301 302 302 300 300 300 301
295 295 295 295 295 295 295 295 296 296 296 297 299 300 299 303 310 310 310 311 311 311 311 309 310 309 309 308 305 304 301 303 302 301 299 296 297 296 299 298 299 297 299 298 298 298 300 301 301 302 301 300 300 300
295 295 295 295 295 295 295 295 295 295 295 295 297 302 305 303 302 306 308 308 309 308 305 309 309 309 309 308 307 305 303 302 302 301 302 292 295 299 297 298 298 299 298 298 297 300 301 301 301 301 300 300 300 299
295 295 295 295 295 295 294 294 294 294 294 294 295 298 306 305 304 303 302 304 306 306 303 307 307 307 308 307 306 305 304 302 302 301 298 296 299 298 296 295 293 298 298 298 303 305 302 301 301 301 300 300 300 299
294 294 294 294 294 294 294 293 293 293 293 293 294 295 299 304 306 303 306 306 306 305 305 299 304 303 304 304 303 302 302 302 302 302 300 301 301 300 290 293 298 302 303 303 303 303 302 301 300 300 300 300 299 298
293 293 293 294 293 293 294 294 294 293 293 294 293 294 295 301 306 302 304 305 305 304 304 300 300 302 302 301 301 301 301 301 302 302 300 299 300 300 287 290 302 303 303 303 303 302 300 301 301 300 300 299 298 297
293 293 292 293 294 294 295 295 295 295 296 300 297 295 296 300 303 306 304 303 304 305 303 297 297 301 300 301 301 301 301 301 301 301 299 298 299 298 293 297 303 302 301 302 302 303 302 301 300 300 299 299 298 297
292 293 293 294 295 296 296 297 299 297 298 300 298 298 298 300 303 302 303 303 303 303 301 298 300 297 300 300 300 300 300 297 299 297 297 298 297 297 297 300 303 302 301 302 303 303 302 300 300 299 298 298 298 296
293 294 295 296 296 297 298 300 300 299 298 299 299 298 302 302 303 303 303 303 303 302 302 301 300 294 301 299 299 299 299 295 299 299 299 299 300 301 301 303 303 303 302 301 301 300 300 300 299 299 299 298 297 294
294 296 297 298 299 300 299 299 299 299 297 299 299 299 300 301 301 302 302 301 301 300 300 299 300 300 300 300 300 300 299 297 300 296 299 300 298 301 302 303 304 303 302 301 301 301 300 300 300 299 298 298 295 293
297 298 299 299 299 299 299 299 299 299 297 299 299 300 299 300 300 301 300 301 301 301 301 301 301 301 301 300 301 300 301 297 298 295 299 299 298 301 303 303 302 302 301 300 300 300 300 299 299 299 298 296 294 293
298 298 299 299 300 299 298 299 299 299 298 299 299 299 298 299 298 299 301 301 301 299 300 300 298 300 300 300 300 301 302 300 295 298 298 296 298 302 301 301 300 301 301 300 300 300 299 299 299 298 297 295 294 293
298 298 299 299 299 299 299 299 299 299 299 298 299 297 297 297 298 298 296 296 299 299 299 299 299 300 300 299 300 303 302 297 296 298 296 295 299 304 305 305 304 304 302 299 299 299 299 299 298 297 295 294 294 292
298 298 299 299 299 299 299 299 299 300 299 298 298 298 297 296 296 297 298 298 299 300 300 299 299 299 298 299 299 299 300 294 295 296 295 300 303 302 303 303 304 305 302 299 299 299 299 298 298 296 295 294 293 292
297 298 299 298 297 298 298 298 299 299 299 299 298 297 295 294 294 296 298 298 299 299 300 299 296 298 299 297 299 300 297 295 295 293 300 302 302 303 301 303 304 304 303 299 299 299 298 298 297 296 295 294 293 292
297 298 298 297 297 298 298 299 299 299 299 297 296 298 298 296 297 297 297 299 299 299 294 296 298 297 296 299 299 295 295 295 300 301 300 300 301 301 301 303 302 303 303 303 298 298 298 298 296 295 295 294 293 292
297 298 297 297 298 298 298 299 299 299 299 298 296 297 299 299 298 298 298 298 298 299 298 299 298 299 299 296 296 298 298 300 300 300 300 300 300 300 302 302 302 302 302 302 299 298 298 297 296 296 295 293 293 292
297 297 297 297 298 298 298 299 299 298 298 299 299 298 299 299 300 300 299 299 299 299 299 299 299 297 299 299 299 299 299 299 299 299 299 300 300 301 301 301 302 301 302 301 298 299 299 298 297 296 295 293 293 292
296 296 296 297 298 299 299 299 298 299 299 298 298 299 299 299 299 299 299 299 298 298 298 299 300 299 300 300 299 299 300 300 299 300 300 300 300 300 300 301 301 301 302 302 299 298 298 297 296 295 295 294 292 292
297 297 297 298 298 298 299 298 297 298 300 299 299 298 298 299 298 298 298 298 297 299 299 299 300 300 300 300 300 300 300 299 299 299 299 299 300 300 300 300 300 301 301 301 301 299 298 298 297 296 295 294 293 292
297 297 298 298 299 299 299 299 298 298 297 298 297 298 297 296 298 298 298 298 298 299 299 299 299 300 299 300 299 299 299 299 299 300 300 300 300 300 300 300 300 300 301 301 301 299 299 299 297 296 295 294 292 292
299 300 300 299 299 298 297 298 297 297 298 297 296 295 295 296 298 299 299 298 299 299 299 299 299 299 299 299 299 299 299 299 299 299 299 299 300 300 300 300 300 299 300 301 301 299 298 298 297 296 295 293 292 291
300 299 299 299 299 297 294 295 296 296 297 297 298 295 297 297 297 297 297 298 299 300 300 300 299 299 299 299 299 299 299 299 299 299 299 299 299 299 300 300 300 300 301 301 300 299 298 297 296 295 295 293 292 291
299 297 298 296 297 294 294 296 297 297 298 298 298 296 296 297 298 298 297 298 299 299 299 300 299 299 299 299 299 299 298 298 298 298 298 299 299 299 299 299 299 299 300 300 300 299 298 297 296 295 294 293 292 291
298 297 296 295 294 294 294 295 297 297 298 298 299 297 296 298 299 297 294 299 299 299 299 299 298 298 298 298 297 298 298 298 298 298 298 298 298 298 298 298 298 298 299 299 298 298 297 296 296 295 294 293 292 291
299 296 295 296 296 296 295 295 297 297 298 298 297 296 296 297 295 294 298 298 297 297 297 297 298 298 297 296 295 296 297 298 298 298 298 298 298 298 297 297 297 298 298 298 298 297 297 296 295 295 294 292 292 291
297 295 296 294 294 296 294 295 296 297 297 296 295 296 294 294 294 296 296 296 296 297 297 298 298 296 295 294 294 295 296 297 297 297 297 297 298 298 298 298 297 297 297 298 298 297 295 295 295 294 293 292 291 290
295 295 295 292 294 295 295 295 296 297 297 296 296 295 294 296 296 296 296 296 296 297 297 296 294 293 293 294 294 296 296 296 296 296 296 296 296 296 296 297 296 296 296 295 296 295 294 294 293 293 292 291 290 290
294 296 295 295 295 296 295 295 296 296 296 297 296 295 295 296 296 296 296 296 296 295 294 292 292 292 292 292 292 293 293 293 294 294 295 294 294 294 295 295 295 295 294 294 294 294 293 292 292 292 291 290 290 289
295 295 293 293 293 293 294 294 295 295 295 295 295 295 295 295 295 296 295 295 294 292 291 291 291 291 291 291 291 292 292 293 292 293 293 293 293 294 294 294 294 294 293 293 292 292 292 291 291 291 290 289 289 288
294 293 293 293 293 293 293 293 293 294 293 293 293 294 294 294 294 293 292 292 291 290 291 291 290 291 291 291 291 290 291 291 292 291 292 292 292 292 292 292 292 292 292 291 291 291 291 291 290 290 289 289 288 288
292 292 292 292 293 293 293 293 293 292 293 292 293 293 293 293 293 291 290 290 290 289 289 290 290 290 290 290 290 290 290 290 290 290 290 290 291 291 291 290 290 290 291 290 290 290 291 291 290 289 289 288 288 288

GFSWCAN_850_thetae_042.txt.gz
Theta_e
309 303 298 297 297 297 297 298 299 299 300 300 300 302 306 305 308 309 310 309 311 312 308 307 306 305 304 305 311 303 305 303 304 308 310 310 309 307 307 307 307 310 310 309 307 308 310 304 303 306 310 306 304 303
299 296 297 297 296 297 297 297 298 299 300 300 300 301 301 301 302 304 305 305 304 307 311 309 307 306 308 306 305 303 306 305 307 309 306 307 309 307 310 311 304 308 309 312 309 311 307 303 305 306 304 303 304 303
296 296 296 295 296 296 296 297 297 297 298 299 299 300 300 301 301 301 302 303 304 305 307 307 308 308 309 308 305 306 304 304 303 302 305 308 310 307 310 309 308 304 304 305 306 307 306 306 305 304 304 303 303 302
296 296 295 295 295 295 296 296 297 297 297 297 297 298 299 299 299 299 300 300 301 304 307 306 306 307 306 308 308 304 303 303 302 301 304 308 309 304 308 306 306 305 302 307 308 307 306 306 306 305 304 303 302 301
295 295 295 295 295 295 295 295 296 296 295 295 295 295 295 295 297 296 298 301 303 302 307 306 306 306 306 307 306 306 304 302 302 303 304 307 304 303 303 301 305 304 306 307 309 307 306 305 304 303 302 302 302 301
294 294 294 295 295 295 295 295 295 295 295 294 294 294 294 294 295 296 304 304 304 304 304 309 304 304 304 304 304 303 303 303 303 304 304 302 301 304 308 307 306 305 304 304 305 304 303 303 302 301 300 301 301 300
294 294 294 295 295 295 295 295 295 294 294 294 294 294 294 294 295 298 303 304 303 302 303 306 305 302 302 301 301 301 301 301 302 303 302 303 302 302 305 306 305 304 304 303 303 303 302 302 302 302 300 300 300 299
294 294 294 294 294 294 294 294 294 295 295 295 295 296 295 295 297 298 300 301 303 302 303 302 304 301 301 301 302 300 301 301 301 302 300 302 301 301 303 304 304 302 302 302 302 301 301 301 300 300 299 299 299 299
293 293 293 294 294 294 294 295 295 296 296 296 297 297 297 299 300 301 302 303 302 301 303 300 303 306 300 299 300 300 300 304 299 302 301 301 302 301 304 303 302 302 301 301 300 300 300 300 300 299 298 298 298 298
293 293 293 293 293 294 295 295 297 298 298 297 297 298 299 300 299 301 301 301 301 303 301 301 300 303 300 299 300 301 298 303 302 301 299 301 303 302 301 301 302 303 303 302 302 303 299 299 299 299 298 297 297 297
293 293 293 293 294 295 296 297 299 299 299 297 298 298 300 300 301 300 301 302 301 301 301 301 300 301 300 302 303 301 302 300 301 302 300 302 302 302 301 303 304 303 301 302 303 303 302 299 299 299 299 299 298 297
293 293 293 294 295 297 298 299 300 299 299 298 299 299 299 299 300 301 301 301 300 301 301 301 300 299 300 300 302 300 301 298 300 299 300 302 303 302 301 304 302 301 303 303 303 303 301 303 300 300 300 299 298 298
292 293 295 295 297 299 300 300 299 299 299 299 298 299 298 298 299 299 300 302 302 300 301 300 300 300 300 300 301 301 302 301 298 300 301 302 302 301 302 303 302 300 300 302 302 302 302 300 303 301 300 299 298 298
292 294 294 295 298 299 300 299 299 299 299 299 298 297 298 298 298 299 299 300 300 300 300 300 299 301 299 300 301 301 301 300 301 301 302 303 302 302 301 301 301 300 300 299 301 302 302 301 299 298 299 299 298 295
293 293 295 298 299 299 300 299 299 299 299 299 297 299 299 298 296 296 296 297 298 299 299 300 299 300 299 300 299 300 301 302 302 302 303 302 301 301 300 301 301 300 300 300 300 301 301 301 299 299 298 298 297 294
293 294 296 297 299 299 299 299 299 299 298 299 298 298 296 297 298 296 296 297 298 298 299 299 300 299 300 300 300 301 300 301 301 302 301 300 299 299 299 300 300 299 299 299 300 300 300 301 300 298 298 298 296 295
293 294 294 297 298 299 299 299 300 299 299 299 297 298 298 298 298 297 297 298 298 299 301 299 300 300 299 299 299 300 301 301 300 300 300 300 299 299 299 299 299 299 299 299 300 299 300 300 300 297 297 297 296 295
295 296 296 297 298 299 299 299 299 298 298 298 297 298 297 297 298 298 298 298 298 299 299 300 300 301 300 300 301 301 300 300 299 299 299 299 299 299 299 299 299 299 299 299 300 299 300 300 300 299 297 297 296 295
295 296 297 298 298 298 298 298 298 298 297 298 298 298 298 298 298 298 299 299 299 299 298 298 300 301 302 301 301 300 300 300 300 300 300 299 299 298 298 298 299 299 299 299 299 299 300 300 300 299 297 296 296 295
295 297 297 297 297 298 297 297 298 297 298 297 297 298 298 298 298 298 298 298 298 297 297 300 300 300 300 300 300 300 300 300 300 300 299 299 299 299 299 298 298 299 299 299 299 299 299 299 300 300 300 298 296 295
295 296 296 296 297 297 297 297 296 296 297 296 297 297 297 297 297 297 297 297 296 297 298 299 299 299 299 299 299 299 299 299 299 299 299 299 299 299 299 299 298 298 298 298 298 299 299 300 300 300 300 298 296 295
294 295 296 296 298 297 297 297 297 297 296 297 297 297 297 297 297 297 298 296 297 298 298 299 299 299 299 299 299 299 299 299 299 299 298 298 298 299 299 299 298 298 298 298 298 299 299 300 299 299 300 299 296 295
295 296 296 297 297 297 297 297 297 297 297 296 295 296 297 297 297 298 298 298 299 299 298 298 299 299 299 299 299 299 299 298 298 298 298 298 298 298 298 298 298 298 298 298 299 298 298 299 299 299 299 298 295 295
296 296 296 296 296 297 295 296 296 296 297 297 298 298 298 298 296 297 298 299 299 299 299 299 299 299 299 299 298 298 299 298 298 298 298 298 297 297 298 298 297 297 297 298 298 298 298 299 299 298 299 297 295 295
297 295 296 296 297 295 295 295 296 297 297 298 298 298 297 295 297 298 299 299 299 299 299 299 299 299 298 298 299 298 298 298 297 297 298 297 297 297 297 297 297 297 297 297 297 298 298 298 298 298 299 296 295 295
298 297 297 297 297 296 296 297 297 297 297 298 298 298 296 298 299 300 299 299 299 299 299 299 298 298 298 298 298 298 297 297 297 295 296 296 296 296 296 296 297 297 296 297 297 296 297 298 298 298 297 295 294 295
298 299 296 296 296 296 296 295 296 297 298 298 298 297 298 299 299 299 299 299 299 299 298 298 298 297 297 297 297 297 296 295 294 295 296 296 297 296 296 296 296 296 296 296 296 296 296 297 297 298 297 294 295 295
298 296 297 295 294 295 295 297 297 297 298 297 297 298 298 298 299 298 298 298 298 298 298 297 297 297 297 297 296 295 294 295 295 295 295 295 295 295 295 296 296 295 295 295 295 295 295 295 296 296 297 295 295 295
296 295 296 296 294 295 296 297 297 297 298 297 298 298 298 297 298 298 299 299 297 297 297 297 297 297 296 295 294 293 293 293 293 293 293 294 294 294 294 294 294 295 295 295 295 295 295 294 295 295 295 294 294 294
295 296 296 296 294 296 297 297 297 297 298 298 298 297 297 298 299 299 298 297 296 296 296 296 296 295 294 293 292 292 292 292 292 292 292 292 292 292 293 294 293 293 294 294 294 294 294 294 294 294 294 294 293 293
297 296 295 295 295 296 297 297 296 296 296 296 296 297 297 298 298 298 297 296 296 295 295 294 293 292 292 291 291 291 291 291 291 291 291 291 291 291 291 291 292 293 293 293 293 293 293 293 293 293 293 293 292 292
294 295 295 295 293 293 294 294 295 295 295 296 296 295 295 295 293 295 295 295 294 293 292 291 291 291 291 291 291 290 290 289 290 290 290 290 290 290 290 290 291 292 292 292 292 292 292 292 292 292 292 292 292 291
293 293 293 293 292 293 292 293 293 293 292 292 292 293 293 294 294 293 293 293 292 291 290 290 290 291 291 290 290 290 289 289 289 289 288 288 289 290 290 290 290 290 290 291 291 291 291 291 291 291 291 290 290 289

GFSWCAN_850_thetae_045.txt.gz
Theta_e
315 313 313 306 299 298 298 298 299 299 300 300 301 301 303 304 305 306 307 306 310 315 308 306 307 308 308 310 314 308 308 307 308 311 314 316 315 313 311 312 312 313 315 314 312 314 314 309 306 309 310 308 308 307
314 311 308 298 297 297 297 298 298 299 300 300 301 301 301 302 302 303 304 304 304 311 312 309 308 307 308 308 310 307 311 310 311 313 313 314 314 312 313 314 310 311 311 313 313 314 312 309 307 307 307 307 307 306
313 305 299 297 297 297 297 298 298 299 300 300 300 300 300 301 301 301 302 303 303 309 310 308 309 307 307 309 308 309 309 308 307 307 311 312 314 313 313 312 311 310 309 309 310 309 309 309 308 308 308 306 305 305
308 299 297 297 296 296 297 298 298 298 298 299 300 300 300 299 299 299 300 300 301 303 308 309 307 307 308 308 308 304 304 305 305 305 308 312 313 310 311 310 309 309 307 308 308 308 307 307 307 306 305 305 305 305
298 296 296 295 296 296 297 297 298 298 298 298 298 299 298 297 297 297 299 300 300 306 310 309 306 307 307 307 306 306 304 304 306 308 308 310 309 308 308 307 308 307 308 309 310 306 306 305 305 305 305 304 304 303
296 296 295 295 295 296 296 297 298 298 297 297 297 296 295 295 295 298 307 304 304 303 308 313 306 304 303 303 304 304 305 305 307 308 309 308 305 306 311 311 308 307 306 306 305 304 304 304 304 304 304 304 303 303
296 295 295 295 295 296 296 295 297 297 295 295 295 295 295 294 295 304 306 304 303 301 305 308 308 302 302 302 303 304 303 305 305 307 306 307 306 304 308 308 307 306 305 304 304 304 304 304 303 303 303 302 302 301
295 294 294 294 295 295 295 295 295 295 295 295 295 295 295 295 295 301 300 301 298 300 303 306 306 303 302 305 305 302 305 304 304 306 304 305 305 304 307 306 306 305 304 304 304 303 303 303 302 302 302 301 301 301
294 294 294 294 295 294 294 294 295 295 296 296 296 296 296 301 303 301 301 302 302 302 305 303 306 310 302 303 303 303 303 306 303 304 304 304 305 305 305 305 305 304 304 304 303 304 304 304 303 302 301 301 300 300
294 294 294 295 294 294 294 295 295 297 297 297 297 301 303 301 300 300 301 303 303 304 302 303 303 305 303 304 305 305 302 305 305 303 301 302 303 303 303 304 304 304 304 303 303 304 303 303 302 302 301 301 300 300
294 294 294 294 295 294 295 296 297 298 298 298 301 302 300 300 301 303 303 302 302 302 302 303 302 304 301 304 305 303 304 302 303 303 302 303 304 304 303 303 304 304 302 302 303 304 303 303 302 301 300 300 299 298
294 293 293 294 294 294 296 298 299 299 299 300 300 300 300 302 302 302 303 302 301 302 302 302 301 301 301 301 303 302 302 300 301 301 301 302 304 303 304 303 304 303 302 302 302 303 303 302 302 301 300 299 299 298
293 293 293 294 294 295 298 300 299 299 298 298 301 300 300 300 301 302 302 302 303 301 301 301 301 301 300 301 302 302 301 302 301 301 301 303 303 303 303 303 303 302 302 302 301 301 302 302 301 300 299 299 299 298
292 293 293 294 296 297 300 300 299 299 300 301 299 298 301 300 301 302 302 303 303 302 301 301 300 302 301 302 302 302 302 302 301 302 302 303 302 302 303 302 302 302 302 301 301 300 301 302 301 301 300 298 298 297
292 293 295 297 299 300 300 300 299 299 300 299 299 300 300 300 299 300 300 300 300 302 302 301 300 301 300 300 300 301 301 301 302 303 303 302 301 301 300 300 300 300 301 301 300 300 300 300 300 300 300 298 298 297
293 298 300 300 300 300 300 299 299 299 299 298 298 300 298 299 300 299 299 300 300 301 302 302 301 300 301 301 301 301 301 302 302 303 302 301 300 300 300 300 300 300 300 300 300 300 300 300 300 300 300 299 297 298
295 299 299 299 300 300 300 300 299 299 298 298 299 299 299 300 300 300 300 300 300 301 303 302 301 301 301 302 301 301 301 302 301 301 300 300 300 300 300 300 300 300 300 300 300 300 300 300 299 299 300 299 298 297
296 296 296 299 300 300 300 300 299 299 299 298 299 299 299 300 300 299 299 300 300 301 302 302 300 302 301 301 301 301 300 300 301 301 301 301 301 301 301 300 300 300 300 300 300 300 300 300 299 299 299 299 297 296
295 294 296 298 299 299 299 299 299 298 298 298 299 299 299 299 299 299 299 299 299 300 300 299 301 301 301 301 301 301 301 301 302 302 302 301 301 300 300 300 300 300 300 300 300 300 299 300 299 299 299 299 297 297
295 296 297 298 299 299 298 298 298 298 299 298 299 299 299 299 299 299 299 299 299 299 299 300 300 300 300 300 301 301 301 301 301 302 301 301 301 300 300 300 300 300 300 300 299 299 299 299 299 299 299 299 297 299
297 298 298 298 299 298 298 298 297 297 298 298 299 299 299 299 299 299 299 299 299 298 299 298 299 299 299 299 300 300 300 300 301 301 301 301 300 300 300 300 300 300 300 300 300 299 299 299 299 300 299 299 300 300
297 297 299 298 297 297 297 297 297 296 297 298 298 298 299 299 298 299 299 299 298 298 298 299 299 300 300 300 300 300 300 300 300 300 300 300 300 300 300 300 300 300 300 299 299 299 299 299 299 300 298 298 298 298
296 297 296 296 297 296 297 297 296 296 297 297 298 298 298 298 298 299 299 299 299 298 298 299 299 299 299 300 300 300 300 300 300 300 300 300 300 300 300 299 299 299 298 298 298 298 298 299 298 298 298 297 297 297
295 296 296 296 296 298 296 297 296 298 298 298 298 298 298 298 298 298 299 299 299 299 300 299 300 300 300 300 300 300 300 300 300 299 299 299 299 299 299 299 299 298 297 296 297 297 297 297 298 298 298 297 297 298
295 296 295 296 296 296 296 296 297 297 298 298 298 299 299 298 299 299 299 299 300 300 300 300 300 300 300 300 300 300 300 299 298 298 298 298 298 297 297 297 297 297 296 296 296 297 296 296 296 297 298 298 298 295
297 296 296 297 296 297 297 297 297 297 298 298 298 298 298 300 300 300 300 300 300 300 300 300 300 300 300 299 299 298 298 297 297 297 296 296 296 296 296 296 296 296 296 295 295 295 296 296 296 295 295 297 297 295
298 298 296 297 298 298 298 298 297 298 298 298 299 299 299 300 300 300 300 300 299 299 299 298 298 297 298 297 297 297 297 296 295 295 295 295 296 296 296 295 295 295 294 294 294 295 295 295 295 296 296 296 296 294
298 298 298 296 297 298 298 299 299 299 299 299 300 300 300 300 301 300 299 299 299 299 299 298 297 297 297 297 297 296 295 294 294 294 294 295 294 294 294 294 294 293 294 294 294 295 294 294 294 295 295 295 295 294
297 298 298 297 297 297 298 299 299 299 300 299 300 300 300 300 299 299 299 299 299 300 299 297 297 297 296 296 296 294 293 293 293 294 294 294 294 294 293 293 293 293 294 294 294 295 295 295 294 294 294 294 294 294
297 298 298 298 297 298 299 299 299 300 299 299 299 299 298 298 298 298 298 299 299 299 298 296 296 296 295 294 293 293 292 292 292 292 292 292 292 291 291 291 292 293 293 293 293 293 294 294 294 294 293 293 292 292
297 298 298 298 298 298 299 298 297 297 297 298 297 297 299 299 298 298 298 298 298 297 296 295 295 295 294 293 292 292 292 291 291 291 290 291 290 290 290 290 290 291 292 292 292 292 292 292 292 293 292 292 293 293
297 297 298 299 298 295 295 295 296 296 296 296 296 296 296 296 296 297 297 297 297 295 295 294 293 292 292 292 291 291 290 290 289 289 289 289 289 290 289 289 290 290 291 292 292 292 291 291 291 292 292 292 292 292
296 295 296 296 294 294 294 295 295 296 295 295 296 295 296 296 297 295 294 295 294 293 292 291 291 291 291 291 291 290 290 290 289 288 289 289 289 289 289 289 290 290 290 290 291 291 291 291 291 291 291 291 291 291

GFSWCAN_850_thetae_048.txt.gz
Theta_e
315 315 315 313 308 303 299 299 298 299 300 300 301 302 303 304 304 305 307 307 313 315 309 308 308 310 310 311 314 309 309 308 308 311 317 317 317 313 312 312 312 312 313 312 311 313 312 308 306 308 309 309 308 307
315 315 315 313 311 302 298 298 298 299 300 301 302 302 303 303 303 304 304 304 305 312 313 308 308 308 309 308 310 309 311 311 311 312 315 318 316 314 313 314 311 311 310 312 313 313 311 309 308 309 307 306 306 306
315 314 313 312 307 298 298 298 298 299 300 301 302 302 302 302 303 303 303 303 304 308 309 308 309 307 307 308 309 310 310 309 309 308 310 314 315 312 314 313 312 310 310 309 309 310 309 308 307 305 305 305 305 305
314 314 314 310 302 297 297 297 298 299 299 300 301 301 301 301 301 301 302 302 304 307 310 310 308 308 307 307 308 308 306 306 307 307 309 316 314 312 311 310 309 309 308 308 307 307 307 306 305 305 305 305 305 305
314 314 313 304 297 297 296 297 298 298 298 299 300 300 300 300 299 299 299 300 301 308 313 310 307 305 306 306 306 307 306 305 307 308 309 313 310 310 310 308 308 308 307 307 307 305 304 304 304 304 304 304 304 303
314 313 310 298 296 296 296 296 297 298 298 298 298 299 300 299 297 298 303 302 301 301 307 314 307 304 303 304 304 305 306 306 307 308 309 309 306 307 308 309 309 308 307 305 305 304 304 304 304 303 303 303 303 303
314 311 302 296 296 295 296 296 297 297 296 296 296 295 297 297 297 304 308 305 303 301 306 309 308 304 303 303 304 304 304 306 306 307 307 308 307 305 309 308 307 307 306 304 304 304 303 303 304 304 303 302 302 301
314 306 296 295 295 295 295 295 296 296 296 296 296 295 295 295 296 301 301 302 300 299 301 306 308 304 302 305 305 304 305 305 305 306 305 306 305 305 305 306 306 306 304 304 305 303 303 304 303 303 302 302 301 301
312 299 296 295 295 295 295 296 296 296 295 296 296 295 296 301 304 299 297 297 299 304 303 303 306 310 303 304 304 304 304 307 304 305 305 304 305 304 305 305 305 305 304 304 303 303 303 303 303 303 303 302 301 301
305 296 295 294 294 294 295 295 295 295 296 296 296 303 303 300 299 299 300 304 304 304 303 305 304 306 304 305 306 305 303 305 305 303 302 303 303 303 303 304 304 304 304 304 302 302 303 303 303 303 302 301 300 300
298 296 295 294 294 294 294 295 295 296 297 298 302 302 301 300 302 303 304 303 303 302 303 303 303 304 302 305 306 304 304 302 303 302 302 302 302 303 303 304 304 304 304 302 302 302 302 303 303 302 301 301 300 300
295 295 294 294 293 294 295 295 297 297 298 302 301 300 301 302 302 303 304 303 301 303 302 302 302 303 302 302 304 302 302 300 301 302 301 301 302 303 303 304 304 304 303 302 302 301 301 301 302 302 301 300 301 300
295 294 294 293 293 294 295 297 298 299 299 299 301 301 301 300 301 302 302 302 303 301 302 301 301 301 301 302 302 301 301 301 301 301 301 301 303 303 303 303 303 303 303 302 302 302 301 300 300 301 302 300 300 299
294 293 293 293 294 295 298 299 299 298 300 300 299 297 301 300 301 303 303 304 303 302 301 301 300 301 301 301 301 302 302 302 302 302 301 301 303 302 302 302 302 301 300 301 302 302 301 300 300 300 301 300 299 299
293 293 293 294 297 300 299 299 298 300 301 299 300 301 300 301 301 302 301 302 303 301 301 301 300 300 300 300 300 300 301 300 300 301 302 303 302 301 300 301 301 301 301 300 300 300 300 300 300 300 300 300 299 299
292 294 297 300 300 300 300 299 299 300 300 299 299 301 301 301 301 300 300 301 302 302 301 302 300 300 300 301 301 300 301 301 301 301 302 301 301 300 300 300 300 300 300 300 300 300 300 300 300 300 300 300 299 299
295 299 299 300 300 300 299 299 299 299 298 298 298 299 300 300 301 300 300 301 302 301 302 302 301 300 301 300 301 300 301 300 301 301 301 300 301 301 301 301 301 301 300 300 300 300 300 300 300 300 300 300 299 299
298 298 300 301 300 299 299 299 300 299 297 298 298 299 300 300 300 300 300 301 301 302 302 303 302 302 300 299 300 300 300 300 300 301 301 301 301 301 301 301 301 301 300 300 300 300 300 300 300 300 300 299 299 299
298 300 300 300 300 300 300 300 299 298 298 298 299 300 300 300 299 300 300 300 301 301 301 301 300 301 300 300 300 300 300 300 300 301 302 302 302 301 301 301 301 301 301 300 300 300 300 300 300 299 299 299 299 299
299 300 300 300 300 299 299 298 298 297 298 298 299 300 300 300 299 299 299 300 300 300 300 300 300 299 299 300 300 300 300 300 301 301 301 301 301 301 301 301 301 300 300 300 300 300 300 300 300 299 299 299 299 298
299 300 300 300 299 298 298 297 297 298 299 299 299 299 300 299 299 299 299 299 299 300 299 299 298 298 298 299 299 299 299 300 300 300 301 301 301 301 300 300 300 300 300 300 300 300 300 300 300 299 299 299 299 299
300 299 299 299 298 298 297 297 297 297 298 299 299 299 299 299 299 299 299 299 299 299 298 298 299 299 299 299 299 300 300 300 301 300 300 300 300 300 300 300 300 300 300 300 299 299 299 299 299 299 299 299 299 298
298 298 298 298 297 296 297 296 296 296 297 297 298 298 299 299 299 299 299 299 299 298 299 299 299 299 299 299 299 299 300 300 300 300 300 300 300 300 300 300 300 299 299 299 298 298 297 297 297 297 298 299 298 298
297 298 297 296 296 297 296 297 297 297 298 298 298 298 299 299 299 299 299 298 299 299 299 299 299 300 300 300 300 300 301 301 300 300 300 300 299 299 299 299 299 298 298 297 297 297 296 296 296 296 297 297 297 297
296 295 296 297 296 296 297 297 297 298 298 298 299 298 299 298 299 299 299 298 298 299 299 299 300 300 300 301 301 301 300 300 300 300 299 298 298 298 297 297 297 296 296 296 295 295 295 295 295 296 296 295 296 296
295 295 296 296 296 297 297 297 297 298 298 298 298 297 299 299 298 298 299 299 299 300 301 300 300 300 301 301 300 300 299 299 299 298 297 296 296 296 295 296 295 295 295 294 294 294 294 294 294 295 295 296 295 295
297 298 296 297 296 297 297 297 297 297 297 298 298 298 299 297 298 299 300 300 300 300 299 299 299 299 298 298 298 297 297 297 297 296 295 295 295 295 295 295 295 294 294 293 293 293 294 294 294 294 294 295 295 295
297 297 297 297 298 298 298 298 297 298 298 298 299 299 298 298 299 300 300 300 299 299 299 300 299 299 299 298 297 297 297 296 295 294 294 295 295 294 294 294 294 293 293 293 293 294 294 294 293 293 294 295 295 295
297 298 297 297 297 297 298 298 298 298 298 299 299 299 299 299 300 300 300 299 299 299 298 299 299 298 297 297 296 296 295 294 293 294 294 294 294 294 293 292 292 292 293 293 292 293 293 293 294 294 294 294 295 295
297 298 298 297 297 297 298 298 299 299 299 299 299 299 299 300 299 299 299 299 299 298 298 298 298 297 296 296 295 295 294 293 292 292 292 292 292 291 291 290 290 290 290 293 292 292 291 292 293 293 293 293 293 292
297 298 298 298 298 297 297 298 298 299 300 299 299 299 299 299 299 299 299 299 298 298 298 297 297 296 295 295 294 294 293 292 292 291 291 290 290 290 290 290 290 289 290 291 291 291 291 292 291 292 292 292 292 292
298 298 298 299 299 298 298 298 298 297 297 297 297 297 297 297 297 298 298 298 298 298 297 296 295 294 293 294 293 292 292 291 291 289 289 289 289 289 289 289 289 289 289 290 291 291 291 291 291 291 291 291 291 291
297 298 298 298 296 295 295 296 296 297 297 296 297 297 297 297 297 297 297 296 297 295 295 294 293 292 292 292 291 291 291 290 290 289 288 288 289 290 289 289 289 289 290 290 290 290 290 290 290 291 290 291 291 291

GFSWCAN_850_thetae_051.txt.gz
Theta_e
307 308 314 313 315 313 309 306 304 302 301 301 301 302 303 304 305 307 307 309 314 313 308 309 310 310 310 311 307 307 306 306 303 305 305 309 305 309 308 308 306 306 302 304 303 304 308 307 306 308 305 306 305 305
309 312 314 314 315 307 303 302 300 300 300 301 302 303 304 304 304 305 305 305 308 312 309 307 308 309 310 310 310 308 310 308 308 305 307 305 307 305 307 306 307 307 307 306 306 306 308 308 306 305 305 305 305 305
309 313 315 314 314 312 303 299 299 299 300 301 302 303 303 303 304 304 304 304 305 306 307 308 308 307 308 308 310 310 309 309 309 309 309 307 309 305 305 307 310 307 307 304 305 306 306 305 305 304 304 304 304 304
312 314 315 314 314 312 302 298 298 299 300 301 302 302 303 303 303 303 303 303 306 308 310 309 308 308 307 307 308 309 309 308 308 307 308 301 303 309 306 306 305 306 306 304 303 305 305 305 304 304 304 304 303 303
314 315 315 314 313 311 299 297 298 298 299 300 301 301 302 302 301 302 301 302 303 306 307 308 306 305 305 306 307 307 306 307 307 307 304 302 310 306 306 303 304 308 305 303 303 303 303 304 303 303 304 303 303 302
315 315 315 314 313 310 297 296 297 298 299 300 301 301 301 301 300 300 301 300 300 306 307 300 305 304 303 305 306 306 306 305 307 308 307 308 306 307 298 303 307 308 307 306 304 304 304 303 304 304 303 303 302 302
315 315 315 314 314 303 296 296 297 298 298 299 300 300 300 300 299 301 306 304 302 300 304 303 303 303 303 303 304 304 305 306 306 307 306 307 306 306 298 303 305 306 305 304 304 304 303 302 303 303 302 302 302 301
316 315 315 314 312 298 295 296 296 297 297 298 298 297 298 298 298 300 302 303 302 300 302 296 299 302 303 304 304 304 305 304 305 305 306 305 304 304 300 304 306 305 304 304 304 304 302 303 303 303 302 301 302 301
316 315 314 313 306 296 295 295 296 296 297 297 295 295 296 297 298 299 299 298 298 302 299 300 296 299 303 304 304 304 304 299 304 302 303 303 300 300 302 304 305 305 304 304 304 302 302 303 302 303 303 301 301 301
316 315 314 313 300 295 294 295 295 295 295 295 296 300 299 300 299 299 298 301 300 301 302 303 304 298 304 304 304 303 304 300 296 301 302 295 299 303 304 304 304 304 304 304 303 301 301 301 301 301 303 302 301 300
314 314 313 306 296 294 294 295 295 295 296 298 302 303 300 299 301 303 303 301 301 299 302 302 303 300 302 302 300 303 296 297 295 299 297 297 296 300 303 303 303 303 303 303 303 301 301 301 300 300 300 301 302 301
314 313 311 297 294 294 294 295 295 297 297 300 301 299 300 302 302 298 295 301 298 298 302 302 302 302 301 303 302 301 295 293 296 300 294 298 296 302 303 303 303 304 304 304 302 302 301 301 301 301 300 300 301 301
314 312 300 295 294 294 294 295 296 297 299 299 300 301 300 300 294 298 296 296 299 301 302 301 300 301 300 301 301 297 300 296 299 293 298 296 300 301 302 303 303 303 303 303 303 302 302 302 302 301 300 300 300 300
313 303 297 295 293 294 295 296 297 299 299 299 299 296 295 294 295 297 298 298 301 301 301 301 300 301 300 299 300 300 297 296 294 296 298 296 301 301 301 301 301 301 301 300 300 300 300 300 300 300 300 300 300 300
308 299 294 293 293 295 296 298 300 299 299 299 299 293 295 300 300 301 302 302 302 301 301 300 300 300 299 299 298 295 297 297 297 297 296 301 300 300 300 300 300 300 300 300 300 300 300 300 300 300 300 300 300 300
297 294 293 295 295 297 299 300 300 299 299 299 299 298 300 298 298 300 301 302 301 301 300 300 299 299 294 295 295 296 295 296 297 296 301 301 300 299 300 301 301 301 301 301 300 300 300 300 300 300 299 300 300 299
294 299 298 299 298 299 299 299 299 299 298 298 298 300 300 300 299 299 300 302 301 301 298 300 299 295 294 291 294 294 296 296 300 301 301 300 300 301 301 301 301 301 301 301 300 300 300 300 300 300 299 299 299 299
297 298 299 299 299 299 299 299 299 298 298 298 297 298 300 300 300 300 299 301 301 301 301 299 299 296 294 294 295 296 300 300 300 300 300 300 300 300 301 301 301 300 300 300 300 300 300 300 300 300 300 299 299 299
299 300 300 299 299 299 300 299 299 297 299 298 298 300 299 300 300 300 300 300 301 301 301 301 292 294 297 298 298 299 299 299 299 299 300 300 300 300 300 300 300 301 300 300 300 300 300 300 300 300 300 300 299 299
300 300 300 299 299 299 299 298 299 298 297 298 298 299 299 299 300 300 300 301 301 301 300 293 293 298 299 299 299 299 299 299 299 299 299 299 299 300 300 300 300 300 300 300 300 300 300 300 300 300 299 299 299 299
300 299 300 299 299 298 297 297 297 298 298 298 298 299 299 299 299 299 299 299 300 300 298 299 299 299 299 298 298 298 298 298 298 299 299 299 300 300 300 300 300 300 300 300 300 300 300 299 299 299 298 298 299 299
300 300 299 299 298 297 296 297 297 298 298 299 299 299 299 298 298 299 299 299 299 299 299 299 298 298 298 298 298 298 299 299 299 300 300 299 299 299 300 300 300 300 300 300 299 299 299 298 298 298 297 297 297 297
300 299 299 297 297 296 296 297 296 297 295 298 298 298 297 297 298 298 298 298 298 298 298 298 298 298 298 298 298 299 299 299 299 300 300 300 300 300 300 300 299 299 299 299 298 297 297 296 295 295 295 296 297 297
299 298 298 296 296 295 296 297 296 296 297 297 297 295 295 297 298 298 295 298 298 298 298 298 298 299 299 299 299 299 300 300 300 300 300 300 300 300 299 299 298 298 297 296 296 295 295 295 294 294 294 295 296 297
297 296 296 296 296 295 297 297 297 296 297 295 294 294 293 298 294 295 297 297 298 298 298 298 298 298 298 299 300 300 301 300 300 300 300 300 299 298 298 297 296 296 295 295 295 294 294 293 293 293 293 294 295 296
293 294 294 295 295 295 295 295 296 296 296 297 296 297 298 293 295 294 295 298 298 298 299 300 300 300 300 300 300 300 300 299 299 299 299 298 297 296 296 296 294 294 294 294 293 292 292 293 293 293 292 293 294 295
294 296 296 297 296 296 295 296 297 295 296 295 293 294 293 293 294 296 298 298 298 298 299 299 299 299 299 299 299 299 298 298 297 297 297 296 295 295 295 294 294 293 293 293 293 293 292 293 292 292 291 292 293 294
296 296 296 296 296 297 295 296 296 296 295 297 296 295 293 294 295 298 298 298 299 299 299 299 299 299 299 299 299 298 297 297 297 297 296 295 295 295 294 293 292 292 292 292 292 291 292 293 293 293 291 292 294 294
297 297 296 296 297 297 297 296 295 297 297 297 295 296 297 298 299 299 299 299 299 299 299 299 299 299 299 299 298 297 296 296 296 295 294 294 294 294 294 293 292 291 290 291 291 291 292 291 291 291 292 293 294 294
296 297 296 296 292 294 297 298 298 298 297 298 298 298 299 299 299 299 299 299 299 299 299 298 298 298 298 298 297 296 295 295 295 294 293 293 293 292 292 291 290 290 290 290 290 291 291 291 291 292 292 292 292 293
297 298 297 296 294 297 297 297 297 298 298 298 298 298 298 298 299 299 299 299 299 299 299 298 298 298 297 297 296 295 294 294 294 293 292 291 291 291 290 289 289 289 289 289 289 291 290 290 290 290 291 291 292 292
297 297 296 294 295 297 298 297 297 298 298 298 298 298 298 298 298 298 298 298 298 298 298 298 297 297 296 295 294 294 294 293 293 292 291 290 290 290 289 289 289 289 289 289 290 290 290 290 290 290 289 290 290 291
298 298 297 298 296 296 296 297 296 296 296 296 296 297 297 297 296 298 298 298 298 298 297 297 296 295 294 293 293 293 292 291 291 290 289 288 289 289 289 289 288 288 288 289 288 288 289 288 289 289 290 290 290 290

GFSWCAN_850_thetae_057.txt.gz
Theta_e
310 314 309 316 308 302 305 306 309 309 311 311 310 311 312 313 314 315 315 314 314 313 308 309 309 309 308 308 305 304 304 304 302 303 303 304 302 307 306 305 304 304 300 300 299 300 304 305 304 306 303 304 304 303
310 317 316 316 313 302 305 306 308 309 311 307 305 306 307 308 309 311 310 312 315 313 308 308 309 309 309 310 310 305 307 305 306 302 301 301 305 303 305 306 302 305 304 302 302 303 304 305 304 304 304 303 303 302
310 317 316 318 312 302 305 307 308 309 311 304 301 303 304 305 306 307 306 309 312 308 306 306 307 307 308 309 309 308 308 307 307 309 306 303 308 302 304 303 304 305 304 303 303 304 304 303 303 303 303 303 302 301
306 316 317 319 308 302 309 307 308 310 311 302 300 302 302 303 304 304 305 308 308 307 306 306 306 306 306 307 308 309 310 309 309 309 307 296 302 305 303 304 304 305 303 302 302 302 302 303 303 303 302 300 300 301
302 312 316 316 306 310 311 311 310 310 307 300 300 300 301 302 303 303 304 305 306 306 305 305 305 305 305 306 307 308 308 308 307 306 303 300 304 302 300 300 300 304 303 302 303 304 303 303 303 303 301 300 299 299
304 310 315 314 310 311 311 310 311 306 301 299 299 300 301 301 302 302 303 303 304 305 306 298 303 303 304 305 306 306 306 307 307 307 304 305 306 304 294 298 303 306 307 306 305 304 304 303 303 302 301 300 300 300
306 305 315 314 309 311 312 312 311 304 298 298 299 299 300 300 301 302 303 303 304 305 304 300 300 303 304 305 305 305 305 306 306 306 305 305 304 305 292 295 304 304 303 304 304 304 302 302 302 301 300 300 300 300
307 313 313 314 309 312 313 312 311 304 297 297 298 298 299 299 300 302 303 301 305 303 303 295 295 301 303 303 303 304 304 305 304 304 304 303 303 300 296 302 304 305 304 303 303 303 303 302 301 300 300 300 300 300
307 313 310 312 310 312 313 313 312 301 296 297 297 298 299 299 300 302 302 301 302 301 301 297 295 297 302 302 303 303 303 297 302 299 301 301 296 296 301 303 304 304 304 303 303 302 301 301 300 299 300 300 301 300
304 310 310 310 311 312 314 313 310 297 296 296 297 298 298 299 300 301 301 301 301 300 300 297 300 296 302 301 300 301 301 293 295 297 300 293 297 302 303 303 304 303 303 303 302 301 301 300 300 301 301 301 300 301
307 310 313 310 309 311 314 313 302 295 295 297 298 300 300 300 300 301 300 299 298 297 300 301 300 298 301 299 298 300 293 293 295 296 297 296 295 298 301 301 302 302 302 303 303 303 303 301 302 301 301 301 301 301
308 312 311 310 309 310 314 312 296 295 296 298 300 300 300 301 300 297 295 298 295 298 300 300 300 302 302 302 300 298 294 290 295 295 293 298 295 300 300 302 302 302 302 302 303 303 303 303 302 301 300 300 300 299
306 310 310 309 308 313 313 306 295 296 298 300 300 299 300 298 294 298 297 297 295 298 300 300 298 301 301 301 297 292 292 294 295 292 297 296 298 299 300 302 302 303 303 303 303 303 302 300 300 300 300 300 300 300
307 311 311 311 308 312 310 297 295 298 300 302 300 296 297 293 294 296 297 297 299 301 300 300 298 300 299 297 294 293 294 293 292 294 297 294 299 299 299 300 300 300 300 300 300 300 300 300 300 300 300 300 300 299
307 309 313 310 309 311 297 295 297 299 301 300 300 301 294 297 297 298 299 300 300 300 300 299 298 299 292 292 291 293 298 299 295 296 294 298 299 299 299 300 300 300 300 300 300 300 300 300 300 300 300 300 300 299
305 311 312 310 310 302 295 295 299 300 299 299 298 295 296 297 296 299 300 299 300 301 300 299 294 291 294 293 292 294 294 295 295 294 299 298 299 299 299 299 299 300 300 300 299 299 300 300 300 300 300 300 300 299
308 310 308 310 308 298 296 298 299 299 298 298 297 298 299 300 299 300 300 300 300 300 294 295 290 293 290 287 291 292 294 293 297 298 299 300 299 299 299 299 300 299 299 299 299 300 300 300 300 299 299 299 299 299
307 304 306 300 297 297 298 299 299 299 295 297 296 298 299 300 300 300 301 300 300 300 299 296 295 293 293 293 293 294 297 298 299 299 300 299 299 299 299 299 299 299 298 298 299 300 300 300 299 299 299 299 299 299
303 300 299 298 298 298 298 298 298 296 297 298 298 299 299 299 301 302 301 300 300 300 300 299 290 292 296 295 296 297 298 299 299 299 298 298 298 298 298 298 298 298 299 300 299 299 299 299 299 299 299 299 299 298
302 298 298 298 298 299 298 298 298 298 297 298 299 299 299 299 300 301 300 300 300 301 300 292 293 298 299 299 298 298 299 299 298 298 298 297 297 297 298 299 299 300 299 299 299 299 299 299 299 298 297 296 295 295
298 298 298 298 299 299 298 297 297 298 298 298 298 299 298 298 298 299 299 300 300 300 297 300 300 301 300 299 299 299 299 299 299 298 297 297 298 298 298 299 299 299 299 299 299 299 299 298 298 297 295 295 294 294
299 298 297 298 298 297 297 297 298 298 298 298 298 298 297 297 298 299 299 300 300 301 300 300 300 300 300 300 300 300 299 298 297 297 298 298 299 299 299 300 299 299 299 299 299 298 298 297 296 295 294 294 293 293
298 297 298 297 297 297 296 296 297 297 298 296 297 295 294 296 297 298 298 299 300 300 300 300 300 300 300 300 299 298 298 297 298 298 299 299 299 299 300 300 300 299 299 298 297 297 296 295 294 293 292 292 292 292
297 299 299 297 296 296 296 296 296 297 297 296 295 294 294 295 297 297 295 296 298 298 299 299 299 299 298 298 297 297 298 298 298 299 299 300 300 300 300 299 299 298 297 296 295 295 294 294 293 291 292 292 292 292
298 296 296 296 296 294 296 296 296 296 297 296 296 295 293 296 293 295 296 296 297 297 297 297 297 297 297 297 297 298 298 299 299 300 300 300 299 299 299 298 297 296 295 294 294 293 292 292 292 291 291 291 291 292
294 295 295 294 294 295 296 297 297 297 297 297 295 294 295 293 292 293 294 297 297 297 297 297 297 297 297 297 298 299 299 299 299 299 299 299 298 298 297 296 296 295 294 293 292 292 291 291 290 290 290 290 291 291
294 293 295 295 296 296 296 296 296 297 297 296 293 294 293 292 294 294 297 297 297 298 298 298 298 298 299 299 299 299 299 299 298 298 298 297 297 296 296 295 295 294 293 292 291 291 291 291 291 290 290 290 291 291
295 296 296 295 296 296 296 296 296 297 295 296 296 295 295 295 294 296 297 297 297 298 299 299 299 299 299 299 299 299 298 298 298 297 297 296 296 296 295 295 294 293 293 292 291 290 290 291 290 290 290 290 290 292
295 296 296 295 296 296 295 296 295 296 296 296 295 295 295 296 296 297 298 298 299 299 299 299 299 299 298 298 298 298 298 298 298 297 297 296 295 295 295 294 294 292 291 290 290 290 290 290 290 289 289 289 290 291
296 296 296 295 294 295 296 296 296 296 296 297 297 297 297 297 297 298 299 298 298 298 298 299 299 299 298 298 298 298 297 298 297 297 296 295 295 294 294 293 292 291 290 289 289 289 289 290 289 289 289 289 290 290
296 296 295 295 292 295 296 297 296 296 296 297 297 297 297 297 297 297 297 297 297 298 298 298 298 298 298 298 298 297 297 297 297 296 295 295 295 293 292 292 291 290 289 289 289 288 289 289 289 288 288 289 289 290
296 295 295 293 293 295 296 297 297 297 297 297 297 296 296 296 297 297 297 297 297 297 298 298 298 298 298 297 297 297 297 297 296 295 295 294 293 292 291 291 290 290 289 288 288 288 288 288 288 288 288 288 289 289
296 296 296 295 295 295 295 296 295 294 295 295 296 296 297 297 296 297 298 298 298 298 298 298 298 298 298 297 297 296 296 295 295 294 294 293 291 290 290 290 289 289 288 288 287 287 287 287 287 287 287 287 288 288

GFSWCAN_850_thetae_060.txt.gz
Theta_e
302 303 304 302 308 310 315 313 303 308 310 310 314 316 314 313 309 307 307 308 309 312 308 308 308 307 307 307 304 304 304 304 302 304 303 304 302 305 305 304 303 303 300 299 299 300 303 303 304 305 303 304 304 303
302 304 304 302 305 310 313 313 305 309 310 310 312 314 313 312 313 311 311 312 311 312 308 308 308 308 309 309 309 304 307 304 306 301 300 299 303 300 303 304 301 304 303 302 300 302 302 305 303 303 304 303 302 302
302 303 304 301 305 309 308 310 310 311 310 309 310 310 309 309 310 311 311 311 313 310 307 306 306 307 308 309 309 308 308 307 307 307 304 301 307 300 302 303 303 303 302 302 302 303 303 304 303 303 303 303 301 300
301 302 304 302 305 307 310 314 312 311 311 310 309 305 305 307 308 309 309 309 312 308 306 306 306 306 307 307 308 308 310 308 308 309 306 297 301 303 302 302 302 303 302 301 301 301 302 302 303 303 302 300 300 299
301 302 303 302 304 314 315 314 312 312 311 310 309 302 302 304 305 306 306 308 310 306 304 305 305 305 306 306 307 308 308 308 308 306 302 298 303 301 298 299 299 303 302 302 302 304 303 303 303 303 301 299 299 299
301 302 302 301 306 314 314 313 311 311 312 308 306 300 301 302 303 304 304 305 308 305 306 298 303 303 304 305 306 307 307 307 307 306 302 303 305 303 293 297 302 305 305 305 305 305 304 303 303 302 300 300 300 300
301 303 302 301 304 314 312 313 310 312 311 304 300 299 300 301 302 303 303 304 305 305 305 299 299 303 304 305 304 305 305 306 306 305 303 304 304 303 291 296 304 305 305 304 304 303 302 303 302 301 300 300 300 300
301 302 301 302 307 314 313 310 311 313 311 300 299 299 300 300 301 301 303 303 306 304 304 295 295 301 303 303 303 304 305 305 304 303 303 302 301 299 295 301 303 304 303 303 303 303 303 303 301 300 299 300 300 300
301 301 301 303 309 313 313 311 312 313 309 298 298 299 299 300 300 301 302 304 304 302 302 296 295 296 302 301 302 303 303 296 301 298 299 300 295 296 301 303 304 305 304 304 303 303 302 301 300 299 299 300 300 300
301 301 301 307 311 311 312 311 311 313 302 299 300 299 299 300 301 302 301 302 301 301 300 295 299 296 301 300 299 300 300 293 295 297 299 292 297 302 303 303 304 304 303 303 302 302 302 301 300 300 301 301 301 301
301 301 302 309 312 312 312 311 312 310 299 300 298 299 300 300 301 301 299 298 298 296 300 299 300 298 300 299 297 298 292 292 296 297 297 296 295 297 300 301 304 303 303 303 303 303 303 302 300 300 301 301 300 300
300 301 303 308 309 309 310 311 311 302 299 298 300 300 300 300 300 299 295 297 295 297 298 299 300 301 301 302 299 297 293 290 295 295 293 298 295 299 300 300 302 302 301 301 303 303 303 303 302 302 301 300 300 299
300 302 303 306 308 311 310 312 307 299 298 300 300 300 301 298 295 298 296 298 294 298 299 299 297 301 300 300 296 292 292 293 294 292 297 296 297 299 300 301 302 302 302 302 302 302 302 302 300 300 300 300 300 300
300 302 306 306 310 311 309 312 299 298 301 302 301 298 301 295 294 296 297 299 299 300 299 300 297 299 299 296 293 294 293 293 291 295 297 295 299 299 300 300 300 300 300 300 300 300 300 300 300 300 299 300 300 300
299 304 307 310 307 310 308 307 297 299 301 302 301 303 293 297 296 297 299 299 299 300 301 299 298 299 290 292 290 293 296 293 295 296 294 297 299 299 299 300 300 300 300 300 300 300 300 299 299 299 299 300 299 299
300 305 308 310 310 311 304 297 299 299 301 300 297 294 295 296 295 298 298 298 299 301 301 300 293 291 294 293 292 295 294 295 295 294 298 298 298 299 299 299 299 298 299 300 300 299 299 299 299 299 299 299 299 299
300 304 308 310 309 305 298 298 299 300 300 297 295 297 298 299 299 299 299 300 300 301 295 292 291 294 290 288 293 292 294 294 296 297 298 298 299 299 299 299 299 300 299 299 298 298 299 299 299 299 299 299 299 299
304 304 309 308 303 298 297 297 299 299 295 296 295 298 299 299 299 299 300 300 300 299 298 296 294 294 295 294 293 293 296 297 297 298 298 299 299 299 299 299 298 298 297 298 298 299 299 299 299 299 299 299 299 299
304 305 306 308 301 297 297 297 298 295 295 297 297 298 299 299 300 300 299 300 301 300 298 297 293 295 296 295 295 296 298 298 298 299 299 299 298 298 298 298 297 297 298 299 299 299 299 299 299 299 299 298 297 295
305 300 300 302 302 300 298 298 298 297 297 297 298 298 299 299 299 299 300 300 300 301 299 296 297 297 298 298 298 298 299 298 298 298 298 298 297 297 297 297 298 298 299 299 299 299 299 299 298 298 298 296 295 294
300 298 300 302 300 299 298 298 297 298 298 297 298 298 297 299 298 298 299 300 300 300 298 299 300 300 300 298 298 298 298 298 298 298 298 297 297 297 298 298 299 299 299 299 299 299 299 298 298 297 296 295 294 294
298 298 298 299 298 297 297 297 298 298 298 297 298 298 297 297 297 299 299 300 300 301 300 300 300 300 300 299 299 299 299 299 299 298 297 297 298 298 299 299 299 299 299 299 299 299 298 297 296 295 294 293 292 292
297 299 300 299 297 297 296 297 297 298 298 296 297 296 296 296 298 299 299 300 301 300 301 301 300 300 300 300 300 300 300 299 298 297 297 298 298 299 299 299 299 299 299 299 298 297 296 295 294 294 293 292 291 292
299 300 298 296 296 296 295 295 297 297 297 296 296 294 295 295 296 296 297 297 298 300 300 300 300 300 300 300 300 299 299 297 297 298 298 298 299 299 299 299 299 299 298 297 296 295 294 294 292 292 291 291 291 290
299 296 296 295 295 295 296 297 296 296 297 296 296 295 294 296 296 296 297 297 298 298 299 299 300 300 300 299 298 297 297 297 298 299 299 299 299 299 299 299 298 298 296 296 295 294 292 292 291 290 290 290 290 290
294 295 295 293 294 295 295 296 297 297 297 297 296 294 295 295 296 295 295 297 297 298 298 298 298 298 298 297 297 297 297 299 299 299 299 299 299 298 298 298 297 296 295 294 294 292 291 291 290 290 290 290 290 290
294 293 295 295 296 296 296 296 296 297 297 296 295 295 295 296 296 295 297 297 297 297 297 297 297 297 297 297 297 298 299 299 298 298 298 298 298 297 297 296 295 295 294 293 292 291 291 290 290 290 289 289 289 290
295 295 296 295 295 297 296 297 297 297 296 296 296 296 297 296 296 296 297 296 297 297 297 297 297 297 298 299 299 299 298 298 298 298 298 297 297 296 296 295 295 294 293 292 292 291 290 290 290 290 289 289 289 290
295 296 296 294 296 296 296 297 296 296 296 297 296 296 295 296 296 297 297 297 299 299 299 299 298 298 298 298 298 298 298 298 298 298 298 297 296 296 295 295 294 294 293 292 290 290 290 290 290 289 289 289 289 290
295 296 296 295 296 296 295 295 295 296 297 296 296 296 296 296 298 298 298 298 298 299 298 298 298 298 298 298 298 298 298 298 297 298 297 297 296 295 295 294 294 293 292 290 289 289 289 289 289 289 288 288 288 289
296 296 295 294 294 294 294 295 296 296 296 296 297 297 297 297 298 298 298 298 298 298 298 298 298 298 298 298 298 298 298 297 297 297 297 297 296 295 294 294 293 292 291 290 288 288 288 288 288 288 288 287 288 289
295 295 295 294 293 295 296 296 296 296 296 296 295 296 296 296 296 296 297 297 297 297 297 297 297 297 298 298 298 298 298 297 297 297 297 296 295 294 293 292 291 291 290 289 288 287 288 288 287 287 287 287 288 288
295 295 295 295 294 294 295 295 295 294 294 294 294 295 296 296 296 297 297 297 297 297 297 297 297 297 298 298 297 297 297 297 297 296 295 295 293 292 291 291 290 290 289 288 287 287 287 287 286 286 286 286 287 287

GFSWCAN_850_thetae_063.txt.gz
Theta_e
302 302 302 301 303 304 303 304 305 312 312 305 311 313 312 309 306 311 313 313 310 311 308 306 307 306 306 306 303 303 303 303 302 305 306 306 305 306 305 304 304 305 304 303 302 304 306 303 303 307 305 304 304 303
302 302 301 301 302 304 304 303 302 312 312 311 309 310 313 310 309 306 308 310 308 309 308 307 307 307 308 308 308 304 306 304 305 303 301 300 305 301 303 306 300 306 303 305 304 305 301 304 304 304 304 304 303 303
301 301 301 301 302 304 305 304 302 305 311 311 308 309 311 310 311 308 306 307 308 310 307 306 306 307 307 308 308 307 306 306 307 306 303 302 307 301 305 304 303 302 301 304 304 302 301 304 304 303 303 303 302 300
300 301 301 301 302 303 304 303 302 302 309 311 308 310 305 309 310 311 310 311 311 311 306 305 306 306 306 307 307 308 309 307 307 308 306 300 304 302 303 302 302 302 302 301 302 301 302 303 303 303 303 301 300 299
300 300 300 300 301 303 304 303 303 304 311 311 309 311 302 308 308 310 310 308 311 308 304 304 305 305 306 307 307 308 308 308 308 306 303 301 302 301 297 299 300 302 302 304 305 303 304 304 304 303 302 300 299 299
299 300 300 300 301 302 304 302 302 305 311 313 310 311 301 305 307 308 307 307 309 307 306 299 302 304 304 305 306 307 307 307 307 305 302 302 304 303 298 301 303 305 305 304 305 305 304 304 303 303 301 299 299 299
299 300 300 300 301 302 304 302 301 303 312 312 310 310 301 303 306 305 303 304 307 307 305 299 299 303 304 304 305 305 306 306 306 304 302 303 303 302 295 299 303 304 305 305 305 304 302 302 303 302 300 299 300 299
300 299 300 300 301 303 303 302 304 308 313 311 312 303 301 304 304 303 303 304 307 305 304 295 295 301 303 303 303 304 304 305 304 302 302 301 300 298 297 302 303 303 304 303 303 303 303 303 302 302 300 299 299 300
300 300 300 300 302 303 302 303 307 313 311 310 308 300 303 303 302 302 303 305 305 302 302 297 297 298 301 301 302 302 302 297 300 298 299 299 296 298 302 303 304 304 304 304 302 302 303 302 302 300 299 299 300 300
299 299 300 301 302 302 301 306 313 311 307 305 301 303 300 301 301 302 303 304 303 302 301 294 299 297 300 299 298 300 299 294 297 297 298 295 298 302 303 304 304 304 304 303 302 301 302 301 301 300 299 300 300 301
298 299 300 301 302 302 303 312 312 311 308 302 302 299 300 302 301 301 299 299 298 296 299 298 300 297 300 298 297 297 293 293 298 297 298 298 297 297 301 303 303 303 303 303 303 302 302 302 302 300 299 301 301 299
299 300 301 302 301 302 301 310 309 309 302 301 300 301 301 301 300 298 295 296 294 297 297 298 299 301 300 301 298 295 294 291 296 294 295 298 296 299 300 300 301 303 303 302 302 302 302 302 302 302 302 300 300 300
299 300 301 301 302 305 309 310 309 309 301 300 301 301 300 297 294 299 296 295 295 297 298 299 297 300 300 299 295 292 293 294 294 293 298 297 297 299 300 300 301 301 301 301 301 302 302 302 302 300 300 300 299 299
300 301 301 301 303 308 310 311 310 304 300 301 301 300 301 298 295 296 297 298 299 300 299 301 296 299 298 295 292 295 292 293 294 295 297 295 299 299 300 301 301 301 302 302 302 301 300 299 299 300 299 299 299 299
301 301 301 301 302 307 309 309 302 300 300 302 302 303 295 296 295 296 299 299 299 299 301 299 297 298 290 291 290 293 295 294 295 296 295 297 299 299 300 300 300 300 299 300 299 299 299 299 299 299 299 299 299 299
301 301 301 303 302 307 308 302 300 300 301 301 297 293 294 295 294 297 298 298 299 300 301 300 293 293 294 294 293 295 294 295 296 294 298 299 298 299 299 299 299 299 298 298 299 299 299 299 299 299 299 299 299 299
301 300 301 304 306 306 301 299 299 299 301 298 294 296 297 298 297 298 299 299 300 302 297 293 295 295 290 288 292 293 295 294 296 298 298 298 298 299 299 299 298 298 299 299 298 298 298 298 299 299 299 299 299 299
300 300 301 304 301 298 298 298 299 299 298 297 295 297 298 298 299 299 300 299 300 299 298 297 294 294 294 294 294 294 295 296 297 298 298 298 298 299 299 299 298 298 298 297 297 298 299 299 299 299 299 298 298 298
301 301 303 302 302 299 298 298 298 294 295 296 296 298 299 298 299 300 299 300 301 301 298 296 291 293 296 294 295 296 297 297 297 297 298 298 299 299 298 298 297 297 297 298 299 299 298 299 299 299 298 298 297 296
303 303 303 304 304 300 298 297 298 296 296 297 297 298 298 299 299 299 299 300 300 300 298 293 295 297 298 298 298 298 298 298 298 298 298 298 298 298 297 297 297 297 298 298 298 298 299 299 298 298 297 297 296 294
301 298 300 301 300 299 298 297 297 297 297 297 298 297 297 298 298 299 299 300 301 300 297 300 300 300 299 298 298 298 299 299 298 298 298 298 297 296 297 297 298 298 299 299 299 299 299 298 297 296 296 295 294 293
300 299 299 300 299 298 298 297 298 298 298 298 298 298 297 297 298 299 299 300 300 300 301 301 300 300 298 298 298 299 298 298 299 299 298 297 297 297 298 298 299 299 299 299 299 299 298 297 296 295 294 294 293 292
298 299 300 299 297 297 296 297 298 298 298 296 297 297 296 296 298 299 299 300 300 300 301 301 300 300 299 298 298 298 298 299 299 299 298 297 297 298 298 299 299 299 299 299 298 298 296 295 294 294 293 292 291 291
300 301 297 296 296 295 296 296 297 297 296 297 296 295 295 295 298 297 297 298 299 300 301 301 300 300 299 299 299 299 299 299 299 298 297 297 298 298 299 299 299 299 299 298 297 296 295 294 292 291 290 290 290 290
299 296 296 295 295 295 296 296 296 297 298 296 296 295 295 296 295 296 297 297 298 300 300 301 300 300 300 300 300 299 299 299 298 297 297 298 298 299 299 299 298 298 298 297 296 295 294 292 290 290 290 289 290 289
295 295 295 295 295 296 296 297 297 296 296 297 296 295 295 296 296 296 296 298 300 300 300 300 300 300 300 300 300 299 298 297 297 298 298 299 299 299 299 298 298 297 296 296 295 294 292 291 290 290 289 289 289 289
294 294 294 295 295 296 295 296 297 297 297 296 295 295 296 297 297 295 297 297 299 300 299 299 299 299 299 298 298 297 297 297 298 298 298 298 298 298 298 297 297 296 295 295 294 293 292 291 290 290 289 289 289 289
295 295 296 295 295 296 296 297 297 298 296 295 296 296 298 298 297 297 297 297 297 297 297 297 297 298 297 297 297 297 298 298 298 298 298 298 298 297 297 296 296 295 295 294 293 291 291 290 290 290 289 288 288 289
295 295 296 295 296 296 296 297 297 296 296 297 297 296 296 295 296 297 297 297 297 297 297 297 297 297 297 297 298 298 298 298 298 298 298 298 297 297 296 296 295 295 294 293 291 290 290 290 290 289 288 288 288 289
296 296 296 295 295 296 294 294 294 296 297 296 296 295 295 295 296 297 297 298 297 297 297 297 298 298 298 298 298 298 298 298 298 298 298 298 297 297 296 296 295 294 293 292 290 289 289 289 289 288 288 287 288 288
296 296 295 294 294 292 293 295 296 296 297 297 297 297 297 297 296 296 298 298 298 298 298 298 298 298 298 298 298 298 298 298 298 297 297 297 297 297 296 295 294 293 292 291 290 289 288 288 288 287 287 288 287 288
295 295 296 295 294 294 296 296 296 295 296 296 296 296 297 297 296 297 297 298 298 298 298 298 298 298 298 298 298 298 298 298 298 297 297 297 297 296 295 294 294 292 291 290 289 288 287 287 287 287 286 287 287 287
295 295 295 295 294 295 294 295 295 294 294 294 294 295 295 295 294 296 297 298 298 298 298 298 297 297 297 298 298 298 297 297 297 297 297 296 296 295 294 293 292 291 290 289 288 287 287 286 286 286 286 286 286 286

GFSWCAN_850_thetae_069.txt.gz
Theta_e
303 303 303 302 304 302 302 301 301 299 299 301 303 303 310 310 307 312 309 311 311 312 312 309 307 308 309 311 313 309 309 308 309 313 317 319 320 318 316 315 314 315 316 314 314 316 317 309 309 311 313 310 310 310
302 302 303 303 304 303 303 302 302 300 301 303 304 304 309 310 309 311 309 309 310 310 311 308 307 307 307 309 311 308 313 311 312 315 316 319 319 317 318 315 312 313 312 314 314 315 311 309 311 309 309 310 309 309
302 299 301 302 303 303 302 302 302 301 301 303 304 303 307 308 309 311 308 308 308 310 310 309 308 308 307 307 308 311 310 311 311 313 316 317 318 315 315 313 312 311 310 311 312 312 310 309 309 308 307 308 308 307
300 299 299 302 303 303 302 302 302 300 301 302 304 303 304 306 309 311 308 308 308 311 312 311 308 307 307 307 307 308 309 308 310 312 315 319 319 312 314 313 312 311 309 310 311 311 310 309 308 309 307 306 306 304
299 298 301 301 301 302 302 302 301 300 300 302 305 304 302 308 305 309 307 307 307 310 314 310 306 306 306 307 306 307 308 310 311 312 314 318 312 312 311 310 312 310 311 311 311 311 311 310 309 308 307 305 304 303
300 298 297 297 301 301 301 301 301 300 300 301 304 304 303 307 304 307 308 308 307 307 309 313 305 305 305 306 306 307 308 309 311 313 313 310 308 313 318 314 311 311 310 309 310 308 308 307 307 306 306 305 303 302
301 300 298 298 300 299 299 299 300 300 300 302 305 304 303 304 307 306 310 308 307 307 307 309 308 304 304 305 306 307 307 308 311 311 311 312 310 309 315 315 310 309 309 308 307 306 307 306 306 305 305 303 301 301
301 301 298 298 298 298 298 298 299 300 300 301 304 304 303 306 308 307 308 303 305 307 307 312 309 306 304 308 308 306 309 309 308 310 308 310 308 308 311 311 310 308 307 307 306 306 306 306 305 304 303 302 301 301
300 301 300 298 297 297 297 299 299 299 299 302 304 304 304 303 305 306 307 307 306 307 309 307 311 313 305 306 306 306 307 311 306 310 309 308 311 312 310 309 309 307 306 306 306 304 305 305 304 303 303 302 301 301
301 301 300 299 297 296 296 298 299 299 300 304 303 302 300 303 306 306 305 304 304 305 304 312 309 308 306 307 308 308 308 311 311 309 305 308 309 309 308 308 307 307 306 305 304 304 304 305 304 303 303 302 301 301
301 301 300 299 297 296 296 299 299 299 302 304 301 301 303 303 303 304 304 307 306 309 305 306 308 305 304 309 308 307 310 307 310 309 307 311 310 309 305 306 305 306 305 304 305 304 304 304 303 303 302 301 300 300
301 301 300 298 297 297 298 299 299 301 304 302 303 302 302 300 302 305 307 307 308 308 304 306 305 305 303 305 307 304 308 305 312 304 307 309 309 305 303 304 304 305 304 304 303 303 303 303 303 302 302 301 301 300
301 301 300 299 298 297 299 299 300 302 302 301 301 300 300 301 305 306 306 306 308 304 304 304 306 304 303 305 305 307 308 310 303 306 308 309 306 303 302 303 304 304 304 303 302 302 302 302 302 302 302 300 300 299
301 300 300 298 297 298 299 300 300 302 301 300 299 303 302 304 303 304 306 306 305 304 304 306 304 306 304 306 307 311 305 304 307 308 308 309 305 302 301 302 303 303 303 303 302 302 302 302 301 301 300 299 299 299
300 300 299 298 298 299 299 300 301 300 301 300 300 304 304 305 303 305 306 305 303 304 305 305 305 306 305 304 306 303 303 308 307 309 310 307 303 302 302 302 303 302 301 302 302 301 300 300 300 300 299 299 299 298
300 299 299 298 299 299 300 302 302 300 300 300 301 305 305 305 303 302 304 304 303 304 305 307 308 309 307 307 305 307 309 309 310 308 306 303 302 302 302 302 302 301 301 300 300 299 299 299 299 299 298 299 299 298
299 300 299 299 299 300 301 303 300 300 300 299 303 302 303 305 304 303 304 303 303 304 309 310 309 312 305 307 309 307 309 311 308 305 302 302 302 302 301 301 300 300 300 299 298 298 298 297 297 297 299 299 298 298
300 299 300 299 300 301 300 299 299 299 299 300 303 301 302 303 304 303 303 302 303 305 306 310 303 304 308 310 308 306 305 303 303 302 301 301 301 301 300 300 299 299 299 299 298 298 297 298 299 299 298 299 298 298
300 299 299 299 301 301 299 298 300 300 299 300 300 300 301 301 302 302 302 302 303 303 302 306 309 313 307 307 309 306 302 301 300 300 300 300 300 300 300 299 299 299 299 298 298 299 298 298 298 298 298 298 297 297
300 300 301 300 301 300 298 297 299 298 300 299 300 300 301 301 301 301 300 300 300 301 304 307 309 307 306 304 305 304 301 300 299 299 299 299 299 299 299 299 299 298 298 297 297 298 298 298 298 298 298 297 296 296
300 301 301 300 299 299 298 297 297 299 299 300 299 301 300 300 300 300 300 299 301 305 306 303 302 301 302 301 302 301 300 300 300 301 299 298 299 299 299 298 298 297 298 298 299 298 299 299 298 298 296 296 295 294
300 300 298 298 299 297 297 298 299 299 300 300 300 301 301 301 301 300 300 303 304 304 303 302 301 300 299 300 300 301 300 300 300 299 299 298 299 298 298 298 297 297 298 298 299 299 298 298 298 296 295 294 293 292
299 298 298 298 297 297 296 298 300 300 301 301 301 302 301 301 301 300 302 303 304 302 302 301 300 299 299 299 299 299 299 300 299 299 299 299 299 298 298 297 297 298 298 299 298 298 298 298 296 294 293 292 291 292
299 299 298 297 298 299 297 298 299 300 300 301 302 301 301 301 299 301 303 302 302 302 302 300 299 298 298 298 299 299 299 299 299 299 299 299 298 297 297 298 298 298 298 298 298 298 297 296 295 293 292 291 291 291
298 297 297 298 297 299 300 300 300 301 303 301 301 300 300 299 302 302 303 302 301 301 301 300 299 299 298 298 298 299 299 299 299 299 298 297 297 297 298 298 298 298 298 298 298 297 296 295 293 292 291 291 290 290
298 296 298 298 299 300 301 302 302 303 302 301 300 299 299 301 303 305 302 301 301 302 301 301 299 298 298 299 299 298 299 299 299 299 298 297 297 298 298 298 298 298 298 298 297 296 295 294 292 291 291 290 289 290
297 297 297 297 299 300 300 301 302 303 301 300 300 299 301 304 305 303 300 301 302 302 303 302 301 301 300 299 299 298 298 298 299 299 298 297 297 298 298 298 298 298 298 297 297 296 295 293 292 291 291 290 289 289
296 296 299 297 298 300 302 303 302 303 301 300 300 301 305 306 306 300 299 300 301 302 302 301 300 300 300 299 299 299 298 298 299 298 297 297 298 298 298 298 298 298 297 297 296 295 294 293 292 291 290 290 289 289
297 297 298 299 301 301 302 302 303 301 299 299 302 302 300 296 296 296 297 299 300 301 301 300 299 300 300 299 299 298 298 299 298 297 298 298 298 298 298 298 297 297 296 296 295 294 293 291 291 291 290 289 288 288
297 298 299 298 298 299 297 296 297 297 299 298 296 295 294 293 294 295 296 298 299 300 300 301 301 300 300 300 299 299 299 299 297 298 298 298 298 298 298 297 297 296 296 295 295 293 292 291 290 290 289 288 288 288
297 297 296 296 295 295 295 295 296 296 297 296 297 296 294 293 293 294 295 296 297 299 300 300 300 300 300 300 300 299 298 297 297 298 298 298 298 298 297 297 297 296 295 295 294 293 291 290 290 289 288 287 287 287
298 297 297 296 295 295 297 297 296 297 297 297 297 295 295 296 295 294 294 295 296 298 299 300 300 299 299 299 298 297 297 297 298 298 298 298 298 297 297 297 296 296 295 295 293 292 291 290 289 288 288 287 286 287
297 297 297 297 298 297 296 297 297 297 295 295 295 296 295 296 296 294 294 295 295 296 297 298 298 298 298 297 297 297 298 298 298 298 298 297 297 297 297 297 296 295 295 294 293 291 291 290 289 288 287 286 286 286

GFSWCAN_850_thetae_072.txt.gz
Theta_e
306 305 305 304 302 299 301 302 301 300 299 299 299 299 303 303 302 311 310 311 311 312 312 312 311 309 310 311 313 309 309 309 309 312 317 321 320 318 317 315 314 314 317 314 313 316 314 309 309 311 312 311 311 310
305 305 305 303 301 302 303 304 304 302 301 300 299 300 303 303 306 310 309 310 311 311 312 311 310 310 308 309 310 308 311 311 311 313 317 322 320 318 318 318 312 313 313 315 315 316 311 309 311 311 311 311 310 309
304 302 301 301 301 302 302 303 303 303 301 301 300 301 303 304 306 308 309 310 309 309 310 310 310 311 311 307 307 310 310 312 312 314 317 319 319 316 317 314 313 311 311 311 310 311 310 310 310 309 308 309 309 309
303 301 302 302 300 299 301 303 303 302 302 303 301 301 303 303 303 305 308 310 308 309 311 311 311 310 310 310 307 308 310 310 311 312 317 320 322 313 313 313 312 310 309 309 309 310 310 310 309 309 308 307 307 307
302 302 302 302 300 298 301 302 303 302 302 304 302 301 303 304 303 304 306 308 307 309 311 311 309 308 309 307 307 307 307 310 312 313 315 320 313 312 311 310 311 310 310 308 310 310 311 311 310 308 308 307 306 304
303 303 303 303 300 297 300 302 302 302 302 302 301 300 303 304 304 303 305 307 307 308 307 314 308 306 306 306 306 306 308 310 312 314 315 312 311 313 314 313 312 311 310 310 310 309 309 308 308 308 307 306 304 303
303 303 302 302 300 300 298 299 302 302 301 301 301 300 302 304 304 306 305 307 309 308 307 311 308 305 306 307 307 308 308 310 311 312 312 313 310 310 315 315 311 310 310 311 309 308 307 306 307 307 306 305 303 302
303 303 303 301 300 298 297 299 300 299 300 301 301 300 303 305 304 305 305 305 306 307 307 311 310 305 305 307 308 308 309 309 309 312 309 311 309 309 309 312 312 310 309 309 308 307 307 307 306 305 305 303 301 301
301 301 302 301 301 299 298 298 298 298 300 300 300 301 304 304 304 303 304 305 306 306 309 307 307 312 305 308 307 307 309 312 308 310 310 310 311 308 309 309 310 309 308 308 307 306 306 305 305 304 303 302 301 301
301 301 301 300 301 301 299 298 298 298 300 300 300 303 303 303 304 305 306 307 303 304 304 310 310 307 307 308 310 309 309 313 310 309 307 307 309 310 310 309 309 309 307 307 306 305 305 305 304 303 303 302 301 301
301 301 301 301 301 301 299 298 297 298 300 301 302 302 302 303 304 302 300 302 303 307 307 307 309 305 307 310 309 309 310 307 311 307 308 309 308 308 308 308 308 307 306 306 305 305 305 305 304 303 303 302 301 300
301 299 297 298 301 301 300 298 297 299 301 301 302 302 300 301 300 301 303 305 307 308 308 307 307 306 306 307 307 305 309 306 311 305 306 308 308 306 305 306 306 306 305 305 305 304 304 304 303 303 302 301 300 301
298 298 298 300 301 301 299 298 297 300 301 302 302 300 299 299 303 304 307 308 310 307 307 306 305 304 304 307 307 307 308 308 304 306 307 307 307 304 304 305 306 305 304 304 303 303 303 303 302 302 301 301 300 300
299 300 300 300 301 301 299 297 298 301 301 301 298 301 301 303 302 305 306 307 306 305 306 306 305 307 305 307 307 307 306 304 306 308 308 307 305 303 304 304 305 304 304 303 302 302 302 302 302 301 301 300 299 299
300 301 301 301 301 301 299 297 299 301 301 299 299 304 302 303 305 304 305 307 305 305 306 306 307 306 306 304 308 303 303 306 307 307 308 307 304 303 303 304 304 304 303 303 302 302 302 301 300 300 299 299 298 298
301 302 301 301 301 300 299 298 301 300 301 299 299 303 305 304 305 304 306 305 305 305 306 307 307 308 306 306 304 305 306 307 307 306 307 305 303 302 303 303 303 303 302 302 301 301 300 300 299 299 299 298 298 298
301 302 301 301 300 299 298 299 301 300 300 298 299 302 305 305 306 303 305 305 305 306 306 309 305 306 306 306 307 306 307 309 309 306 305 303 302 303 303 302 302 301 301 300 300 299 299 298 297 297 299 299 298 298
302 301 301 300 299 299 301 300 299 300 298 298 303 304 304 304 306 304 305 304 305 305 308 310 305 305 306 306 307 306 308 307 306 304 303 302 302 302 302 301 301 300 300 299 298 298 297 297 298 298 298 298 298 298
301 301 301 299 299 299 300 299 299 299 300 300 302 304 303 303 304 304 305 304 304 306 307 307 306 309 307 307 308 306 305 305 302 303 302 302 302 301 301 300 300 300 299 299 298 297 297 298 298 298 298 298 297 297
300 300 299 299 299 300 298 296 298 299 300 301 302 302 303 303 303 303 303 303 303 304 305 303 308 311 309 307 309 306 304 303 302 301 301 301 301 300 300 299 299 299 298 298 298 298 298 298 298 298 298 297 296 296
300 300 300 300 299 300 298 297 298 300 300 301 301 301 301 301 302 302 302 301 302 305 307 306 305 305 305 305 306 305 303 302 301 302 300 300 300 299 299 299 299 298 298 297 297 298 299 299 298 298 297 296 295 294
300 300 299 299 299 298 298 298 299 299 300 300 301 301 301 301 301 301 301 301 304 305 306 304 303 303 302 304 304 303 301 301 301 301 300 300 299 299 299 299 298 298 297 298 298 298 299 298 298 297 295 295 293 292
300 299 298 299 297 297 297 299 300 300 301 301 301 302 301 301 301 301 301 302 305 305 304 303 302 301 302 302 301 301 301 301 300 300 299 299 299 299 299 298 298 297 298 299 299 298 298 298 297 295 294 293 292 292
298 299 298 297 298 299 297 297 299 301 301 302 302 303 302 302 300 301 303 303 304 303 303 301 300 300 299 300 300 300 300 300 300 299 299 299 299 298 298 298 297 298 298 298 298 298 298 297 295 295 293 292 291 291
298 297 298 298 297 298 300 300 301 302 303 303 302 301 300 300 302 302 303 302 302 301 301 300 299 300 300 300 300 300 300 300 299 299 299 299 299 298 297 298 298 298 298 298 298 298 297 295 294 294 292 291 291 290
298 296 299 298 299 300 300 302 301 303 302 302 301 300 300 301 302 303 301 302 302 301 301 300 300 299 299 300 300 300 299 299 300 299 299 299 299 298 297 298 298 298 298 298 298 297 296 295 294 293 292 291 290 290
297 297 297 298 301 300 301 301 303 303 302 302 300 299 301 303 304 303 303 303 302 302 303 302 301 302 301 300 299 300 299 299 299 299 299 298 297 297 297 298 298 298 298 298 297 297 296 295 294 292 291 290 290 289
298 297 299 298 300 301 302 303 303 303 301 301 300 300 303 304 304 300 301 302 302 302 303 301 300 302 302 301 300 299 299 299 298 298 298 297 297 298 298 298 298 298 298 298 297 296 295 295 293 292 291 290 289 289
297 297 298 298 300 301 302 302 302 302 301 300 302 302 299 296 296 296 299 301 302 302 302 300 299 300 299 299 299 299 299 299 299 298 297 297 298 298 298 298 298 298 297 297 296 295 295 293 292 291 291 290 288 288
299 299 300 298 299 299 297 297 298 299 299 300 298 295 293 292 293 295 298 301 302 302 301 301 301 300 299 299 299 298 299 299 299 299 297 297 298 298 298 298 298 297 297 296 296 295 293 292 292 291 289 288 288 288
297 297 297 296 296 296 295 296 297 297 298 297 297 296 293 293 293 295 299 300 301 300 300 300 299 300 300 299 300 298 298 298 299 298 297 298 298 298 298 298 297 297 296 296 295 294 293 292 291 290 289 288 288 287
298 297 297 296 296 296 297 297 297 297 297 297 296 295 295 296 294 293 296 298 299 300 300 300 300 300 300 300 299 298 299 299 299 297 298 298 298 298 297 297 297 296 296 295 295 294 292 291 290 289 288 287 287 287
297 297 297 297 298 298 297 298 298 297 296 296 296 296 296 296 294 293 294 295 297 298 299 300 300 300 300 300 299 299 299 299 298 298 298 298 298 297 297 297 297 296 296 295 295 293 292 291 290 289 288 287 287 287

GFSWCAN_850_thetae_075.txt.gz
Theta_e
304 306 306 305 305 305 305 304 303 301 301 300 299 299 299 302 305 305 303 308 310 310 310 309 312 312 311 309 308 308 306 306 305 307 310 313 313 314 314 311 310 309 307 307 308 310 310 308 308 305 305 310 310 310
307 305 304 303 306 305 304 303 304 302 301 301 300 301 301 301 302 304 304 306 309 310 310 311 311 310 310 310 307 309 308 309 308 306 309 314 315 312 313 313 310 309 310 310 308 308 309 309 309 310 310 310 310 309
307 306 304 304 305 305 303 303 303 304 302 303 303 302 302 301 303 304 306 308 309 309 309 309 310 309 311 310 310 307 310 310 311 312 314 314 315 309 311 310 310 309 309 307 306 307 308 310 310 310 310 310 309 309
307 306 305 304 305 304 302 300 301 303 303 303 304 304 302 301 303 303 303 306 307 308 309 309 309 310 308 310 310 309 307 309 309 311 314 312 309 310 308 308 306 306 306 305 304 305 309 310 309 309 308 308 308 308
307 306 305 304 304 303 300 300 299 301 303 303 303 304 303 301 302 303 303 303 305 306 309 308 308 308 310 310 310 309 307 306 309 311 310 310 313 307 306 304 305 307 306 304 304 307 308 309 310 309 308 307 307 306
306 305 305 304 304 301 302 301 299 301 303 303 303 303 302 301 303 304 304 304 304 307 307 308 309 307 307 308 308 307 306 306 309 312 310 311 311 311 302 303 308 310 310 310 308 309 310 309 309 308 308 307 306 304
306 305 304 302 301 303 303 301 298 301 302 302 302 302 301 301 304 304 304 306 306 307 307 307 307 306 305 306 306 306 306 309 310 311 310 310 309 311 300 304 309 310 310 309 309 309 307 307 307 308 307 306 304 302
305 304 302 302 303 303 303 300 299 301 301 302 301 301 301 300 303 304 304 305 306 304 306 306 308 304 306 307 307 308 308 309 309 311 310 308 308 306 303 307 311 310 309 308 308 308 308 306 306 306 306 304 302 301
304 304 302 303 303 303 302 301 298 298 302 301 300 301 300 301 303 303 304 304 305 305 301 306 305 305 306 307 307 308 309 304 308 305 306 306 304 303 306 307 309 309 309 308 307 307 307 307 306 305 304 303 301 301
303 304 303 303 303 302 301 299 298 299 299 299 301 301 301 301 302 303 304 305 305 301 302 304 307 305 305 306 305 306 307 304 303 304 307 300 303 308 309 309 308 309 309 308 307 305 305 305 305 304 303 302 301 301
303 303 303 303 303 302 301 299 299 299 299 301 300 301 301 302 302 303 303 302 300 301 304 305 307 303 307 307 306 307 303 304 304 305 304 302 303 304 307 308 309 308 308 307 307 306 305 305 304 303 302 302 301 301
303 303 301 301 301 301 301 300 299 299 300 300 300 301 300 302 301 301 301 301 302 305 305 305 306 306 307 308 305 303 305 301 303 302 299 303 302 308 307 308 308 308 307 306 305 305 305 304 304 303 302 301 301 300
302 302 301 301 301 301 301 301 299 299 300 300 300 301 301 299 299 302 303 303 306 305 306 306 304 306 305 306 304 302 302 300 301 298 302 301 304 306 306 307 306 306 305 305 304 305 304 304 303 302 302 301 300 300
302 301 301 301 300 300 301 301 299 298 300 300 300 299 298 298 300 302 301 301 306 305 306 306 304 304 305 304 302 304 301 298 299 301 304 301 306 305 306 306 306 305 305 304 304 303 303 303 302 302 301 301 300 299
299 300 301 301 298 299 301 301 299 299 299 300 299 298 299 300 302 302 303 304 306 306 306 305 305 305 302 305 302 298 299 298 301 302 300 306 306 305 305 305 305 304 304 303 303 302 302 301 301 301 300 299 298 297
301 301 301 300 299 300 301 300 299 299 300 300 298 301 301 299 299 302 303 304 305 305 306 306 305 305 304 303 299 300 299 302 302 300 307 307 305 304 304 305 304 304 303 302 302 301 301 300 300 299 298 297 297 298
301 302 300 300 301 300 301 300 300 300 299 299 296 299 302 303 302 303 304 304 304 305 305 304 307 306 299 294 297 298 300 301 304 306 307 306 305 304 304 305 304 303 303 302 301 300 300 299 299 298 297 298 298 298
301 300 300 300 301 301 301 299 300 300 298 298 299 300 301 303 304 304 304 304 305 305 306 306 304 301 299 299 300 302 305 307 307 307 306 305 304 303 304 304 303 303 302 301 300 299 298 297 296 297 298 298 297 297
301 301 302 302 302 301 299 298 300 298 298 298 300 301 302 303 303 304 304 305 305 305 306 306 303 302 301 301 304 305 307 308 305 304 304 303 303 303 303 302 302 301 300 300 299 298 297 297 297 298 298 297 297 297
302 302 302 301 301 300 298 295 299 299 299 300 300 301 303 303 303 304 303 304 304 305 304 303 300 303 305 307 308 308 308 306 305 302 302 302 303 302 302 301 300 300 299 298 298 297 297 298 298 298 297 297 296 295
302 301 302 301 299 299 299 297 298 299 299 300 300 301 301 302 303 303 303 303 303 303 299 304 305 307 307 307 308 308 307 306 304 303 302 301 301 301 300 300 299 299 299 298 297 298 298 298 298 297 297 296 295 294
301 302 299 298 299 299 298 298 298 298 299 300 300 301 300 299 300 302 303 302 301 303 304 305 305 306 305 305 306 307 305 304 303 302 300 300 300 300 300 299 299 299 298 297 297 298 298 298 297 297 296 295 293 292
301 299 298 299 297 297 297 298 299 300 298 300 300 301 300 299 301 301 300 301 302 303 303 304 305 305 304 304 304 304 303 303 302 301 300 300 300 299 299 299 299 298 297 297 298 298 298 297 297 296 295 293 292 292
299 299 298 298 298 297 297 298 299 300 300 301 301 301 301 300 300 299 299 299 302 303 303 303 304 302 302 302 302 302 302 302 301 300 300 300 299 299 299 299 298 298 297 298 298 298 298 297 296 295 293 292 291 291
298 297 298 298 297 295 294 297 299 300 301 302 300 300 300 300 300 301 300 300 303 303 303 303 303 302 302 301 300 301 301 301 301 300 300 300 299 299 299 298 298 297 298 298 298 298 297 296 295 294 293 292 291 290
298 296 298 297 294 297 297 299 299 300 300 301 300 299 299 299 300 300 298 302 302 303 303 302 302 300 300 301 301 301 300 301 301 300 299 300 300 299 298 297 298 298 298 298 297 297 297 295 295 293 292 291 290 290
297 296 297 298 298 299 299 299 301 300 300 300 299 298 299 301 301 300 304 304 303 303 303 304 303 302 302 300 300 300 300 300 301 301 300 299 299 299 300 299 297 298 298 298 297 297 297 295 294 293 292 291 290 289
298 297 298 297 298 300 299 300 301 302 302 299 298 299 300 302 302 302 302 302 303 303 303 303 302 301 301 301 301 301 300 300 300 300 299 299 298 298 298 298 298 298 298 298 297 297 296 295 294 293 292 291 290 289
296 297 298 296 295 298 298 300 299 301 302 299 300 300 299 298 298 299 300 302 302 302 301 300 299 299 300 300 300 300 301 300 299 299 298 298 297 297 297 298 298 298 298 297 297 296 295 294 293 292 291 291 289 289
296 298 298 298 295 297 296 298 300 300 300 300 299 296 293 294 295 296 300 301 301 301 301 301 300 300 300 300 299 299 299 299 299 300 299 298 298 297 298 298 298 298 297 297 296 295 294 293 292 291 291 289 288 288
298 297 295 295 295 295 296 297 298 299 300 299 297 295 293 294 295 297 300 301 300 300 299 299 299 300 300 300 300 300 298 299 299 299 300 299 298 297 298 298 298 297 297 297 296 296 294 293 292 291 290 289 288 288
297 296 296 294 294 296 296 297 297 297 297 296 295 295 294 294 294 298 300 300 300 299 299 300 300 299 300 300 300 300 300 299 299 299 299 298 297 298 298 298 297 297 297 296 296 295 293 292 292 291 289 288 288 287
296 296 296 297 297 296 297 297 297 295 295 295 296 296 295 295 293 295 299 300 300 300 299 299 299 300 300 300 300 300 300 299 299 299 298 297 297 298 298 297 297 297 296 296 295 294 293 292 291 290 289 288 287 287

GFSWCAN_850_thetae_078.txt.gz
Theta_e
310 310 310 309 307 304 306 307 306 305 304 305 305 303 302 300 302 305 305 307 309 308 308 307 308 310 310 310 306 308 305 305 303 306 307 309 312 314 313 311 309 309 307 307 307 309 311 307 307 304 303 308 309 309
309 308 308 309 308 305 306 306 304 304 305 305 304 304 305 303 302 302 303 303 304 308 307 308 310 310 310 309 309 308 306 306 306 303 305 309 313 311 310 312 307 309 308 308 308 309 308 308 306 308 311 309 309 309
306 306 308 309 307 305 306 305 304 304 304 304 303 304 304 304 302 301 302 303 305 307 307 307 306 306 307 308 309 309 309 308 309 310 310 309 313 308 311 310 310 308 307 307 306 307 307 310 308 309 310 309 309 308
305 307 309 309 307 306 306 305 304 303 303 303 304 304 304 303 303 303 303 303 305 306 307 307 306 307 308 308 308 309 310 309 307 307 310 308 309 310 308 308 306 306 305 305 303 304 306 309 309 309 309 309 308 308
306 307 309 308 307 307 305 304 304 303 303 304 303 304 303 303 301 302 303 303 303 304 306 307 306 306 306 308 308 309 310 307 306 308 307 310 312 306 304 303 304 305 305 304 305 306 307 307 310 309 309 308 307 307
306 307 309 307 307 306 305 305 304 302 302 301 303 303 304 303 302 303 303 302 303 303 305 306 306 308 309 308 307 307 308 306 305 309 309 311 311 309 301 302 306 309 310 310 308 309 308 309 310 308 308 307 307 306
306 307 308 307 307 306 305 305 304 301 299 300 303 303 303 303 301 303 302 305 305 304 305 305 305 307 307 307 306 305 305 305 305 308 308 309 308 310 298 305 308 310 310 310 309 308 308 309 308 308 308 306 305 303
306 308 307 307 306 305 305 303 302 301 299 302 303 302 303 302 301 303 303 304 304 304 304 304 306 305 305 305 306 306 306 305 308 309 308 307 307 304 303 306 310 310 309 309 308 308 309 308 307 307 306 305 303 302
306 308 307 307 306 305 304 303 302 300 300 302 303 302 302 301 301 301 301 303 303 303 302 301 306 301 305 306 307 307 307 302 306 304 305 305 302 304 307 309 309 309 310 308 307 307 308 307 306 306 305 303 302 301
308 307 305 305 305 304 302 303 303 300 300 302 302 301 301 301 301 302 302 302 303 304 304 302 305 303 305 305 305 304 305 300 302 304 306 300 304 308 311 310 310 308 308 307 306 305 306 306 306 305 304 303 302 301
308 306 305 305 304 303 303 303 302 301 301 302 301 300 301 302 301 302 303 303 302 300 300 303 305 304 305 306 306 306 302 303 303 303 305 302 301 302 310 311 311 308 308 308 308 308 307 306 305 304 303 302 301 301
307 306 305 305 304 303 303 302 301 301 301 300 300 301 301 300 301 302 301 301 301 303 303 303 304 306 306 308 306 304 304 297 303 300 299 303 301 308 308 307 307 308 308 308 307 306 305 305 304 303 302 301 301 300
306 305 304 304 304 303 302 301 300 300 299 300 300 300 299 299 300 300 302 303 303 303 305 305 303 307 307 307 305 302 300 300 300 297 302 300 303 306 307 308 308 307 307 307 306 305 305 304 303 302 302 301 300 300
305 304 304 304 303 303 302 300 300 300 299 299 299 299 299 299 299 297 299 300 303 305 306 306 304 304 305 304 303 305 301 298 298 300 302 300 305 306 306 307 307 306 306 305 304 304 304 303 303 302 301 300 300 300
303 303 303 303 302 302 302 301 300 299 299 299 298 298 298 298 299 300 301 302 305 305 305 305 304 305 302 305 303 300 299 298 300 303 301 306 306 306 306 306 306 305 305 304 304 304 303 303 302 301 301 300 299 297
302 303 302 301 301 302 301 300 300 299 299 299 298 298 298 297 297 300 301 302 303 304 305 305 304 305 305 304 302 301 299 301 303 300 305 306 305 306 306 306 305 305 304 304 304 303 303 302 301 301 299 298 297 297
302 302 301 301 301 301 301 300 300 299 298 298 298 299 300 300 300 300 301 303 304 304 303 304 305 305 299 300 296 297 300 301 303 305 306 306 306 305 305 305 304 304 304 303 303 302 301 301 300 299 297 297 297 297
301 301 301 301 301 301 301 299 299 299 297 298 297 298 299 302 303 303 303 302 303 304 305 305 304 302 300 297 299 300 302 306 306 306 306 306 305 305 305 304 304 303 303 302 301 301 300 299 298 297 297 297 297 297
301 301 301 301 300 301 300 300 300 298 298 297 299 299 299 301 301 300 301 303 303 304 305 306 305 303 300 299 301 305 307 308 308 306 305 305 305 304 305 304 304 303 302 301 300 300 299 298 297 297 297 297 297 296
301 301 301 300 299 300 298 298 299 298 298 298 299 299 299 300 300 300 301 302 303 303 304 303 304 304 302 306 307 306 306 309 309 307 303 303 303 304 304 304 303 302 301 300 300 299 297 296 297 297 297 297 296 296
302 301 300 300 300 299 298 297 299 299 298 299 299 300 300 300 300 300 301 302 303 304 302 305 305 306 306 305 305 307 308 307 306 306 305 302 303 304 304 303 303 302 300 300 298 297 296 297 297 297 297 296 295 294
300 300 302 300 300 298 298 297 297 297 298 298 299 300 298 298 299 301 302 301 302 304 303 304 304 305 305 305 306 306 307 306 304 304 303 303 302 303 303 302 302 300 300 299 298 297 297 297 297 297 296 295 294 292
302 301 299 299 297 297 296 298 298 298 298 299 300 298 297 297 300 300 300 301 301 302 302 303 304 304 304 304 304 305 305 304 303 303 302 302 302 302 302 301 300 300 299 298 297 297 297 297 297 296 295 294 292 292
300 299 298 298 297 296 297 298 298 298 300 300 297 296 299 298 299 298 298 299 302 302 302 302 302 303 304 303 304 304 304 303 303 302 301 301 301 301 301 300 300 299 299 297 297 297 297 297 296 295 294 293 292 292
299 297 298 298 297 297 298 298 298 300 300 298 299 299 299 299 299 298 299 299 302 302 302 303 303 303 303 303 303 303 303 302 302 301 300 301 301 300 300 300 299 299 298 297 298 298 297 297 296 295 293 292 292 291
297 295 297 296 295 294 297 297 298 298 299 300 300 298 298 299 300 301 298 301 302 302 302 303 303 303 303 304 304 302 302 301 301 301 300 300 301 301 300 299 298 298 297 297 298 297 297 296 295 294 293 292 291 290
296 296 297 297 297 297 297 297 297 298 299 298 299 298 299 300 299 297 302 302 302 302 302 303 303 304 304 303 303 302 302 301 301 301 301 301 301 301 300 300 299 298 297 298 297 297 297 296 295 294 292 291 291 290
296 297 298 297 297 298 297 298 299 299 298 297 298 297 298 299 300 303 303 303 303 303 303 303 303 303 304 304 303 301 301 300 299 300 300 299 300 300 299 299 299 298 298 298 297 297 297 296 295 294 292 291 290 289
295 297 298 295 295 297 296 298 298 301 301 298 299 298 298 302 303 303 304 304 302 302 302 302 301 302 302 302 301 301 301 301 300 299 299 299 299 299 299 298 298 297 298 297 297 297 296 295 294 293 292 291 290 289
295 298 297 296 294 296 297 298 299 301 301 300 301 301 300 301 302 301 301 301 301 301 302 302 302 300 300 300 300 300 300 300 300 301 301 300 300 299 298 298 298 298 298 297 297 296 295 294 293 292 291 290 289 288
298 297 295 294 291 295 297 297 298 297 298 298 298 298 298 297 297 298 299 300 300 300 299 300 300 300 300 300 300 300 299 299 300 299 300 300 299 298 297 297 298 298 297 297 297 296 295 294 293 292 291 289 288 288
297 295 294 293 294 295 296 297 297 297 297 297 296 294 294 295 295 297 299 300 300 299 299 299 299 300 300 301 301 301 301 300 300 299 300 300 299 298 297 297 298 297 297 297 297 296 295 294 293 292 290 289 288 288
296 296 296 295 295 295 296 297 295 294 295 295 295 295 295 296 295 297 299 300 300 299 299 299 299 299 300 300 300 300 301 301 300 300 299 299 299 298 298 298 298 297 297 297 296 295 294 293 292 291 290 288 288 288

GFSWCAN_850_thetae_084.txt.gz
Theta_e
304 305 305 305 306 306 305 308 306 307 308 307 306 304 300 299 299 301 309 308 309 308 307 306 307 308 308 308 305 307 306 303 302 302 304 304 306 309 311 310 307 306 304 305 307 310 309 308 307 306 304 307 307 308
303 304 305 306 306 310 309 308 308 309 308 307 305 305 303 301 300 302 305 309 308 308 306 306 307 306 307 305 308 308 305 305 306 301 300 301 308 306 309 312 305 308 307 307 306 307 307 307 306 306 308 309 308 308
305 303 304 307 307 309 309 307 308 309 308 308 305 306 306 304 304 301 302 305 306 306 305 304 302 301 303 306 306 308 307 308 306 306 305 303 308 305 310 308 310 307 305 307 307 307 305 309 309 307 307 308 309 308
311 307 304 305 309 308 309 306 309 310 309 308 307 306 306 305 304 303 303 302 303 305 304 303 303 303 304 305 305 305 306 307 308 308 307 303 302 307 307 306 306 306 305 305 303 304 306 308 308 309 309 308 308 308
314 312 310 305 308 308 308 307 310 309 309 309 306 306 306 303 304 304 304 302 302 303 302 303 303 301 301 304 306 307 307 307 307 306 302 301 306 306 302 301 302 304 306 305 308 307 305 307 308 308 308 308 308 308
317 314 312 311 311 310 308 309 309 309 309 308 307 307 304 304 304 304 304 303 303 303 302 300 301 302 302 303 303 304 304 303 305 306 304 307 308 308 299 301 306 311 310 309 308 308 308 308 308 308 308 308 308 307
317 315 312 311 311 310 309 309 309 308 307 307 307 305 304 304 304 304 302 302 302 303 302 301 302 304 306 305 305 305 305 305 305 305 303 305 307 307 294 305 308 310 310 311 311 309 307 308 308 308 308 308 307 306
316 316 314 311 310 310 309 309 307 307 308 307 305 304 304 304 303 303 303 304 303 303 303 302 304 304 304 304 304 304 304 303 304 304 303 303 304 304 302 306 310 310 310 310 311 309 308 307 308 307 307 307 306 305
312 316 315 312 311 311 309 308 307 307 307 306 303 304 304 303 304 303 303 303 303 302 301 302 300 298 303 304 304 303 303 297 303 300 301 304 301 301 305 307 310 310 311 311 310 308 306 306 307 307 307 306 305 303
308 315 316 313 311 311 308 306 307 308 306 303 304 303 302 303 303 303 302 303 302 302 302 303 302 299 303 302 302 303 303 302 303 301 304 300 305 307 308 310 310 310 310 309 308 306 306 306 306 306 306 306 304 302
307 312 315 312 311 310 307 307 309 306 303 303 302 301 301 302 301 300 301 300 300 302 302 301 301 300 303 301 300 305 306 305 306 302 302 302 300 305 308 308 309 309 310 310 310 309 308 307 307 306 305 304 302 301
305 310 315 312 310 309 306 309 307 305 302 301 302 301 303 301 300 300 300 300 300 299 300 301 301 301 301 303 305 304 306 303 306 298 296 303 302 309 309 309 309 310 310 309 309 309 308 307 307 306 304 303 301 301
304 309 314 312 310 307 309 308 305 303 302 302 302 301 300 300 299 299 300 300 301 301 301 301 301 301 303 305 306 303 305 305 299 295 302 302 307 308 306 307 308 308 308 308 308 307 307 306 306 305 303 301 301 300
302 302 313 312 309 307 309 306 304 301 302 300 299 298 297 298 298 297 297 299 301 301 301 301 302 304 305 305 304 305 302 296 296 299 303 301 304 304 306 305 305 307 307 306 306 306 306 305 305 303 302 301 300 300
301 301 311 310 307 308 308 305 301 301 301 299 298 296 297 296 298 299 300 300 301 302 302 301 302 304 303 304 302 302 298 296 299 302 302 304 304 307 306 305 305 305 305 305 306 306 305 304 303 302 301 300 300 299
301 303 309 308 306 308 306 302 301 301 299 298 297 295 296 296 294 297 298 300 302 303 303 304 303 304 305 304 304 305 298 300 301 299 304 305 307 306 305 304 305 305 305 305 305 305 304 303 302 301 300 300 299 299
301 303 308 306 306 306 302 300 299 300 300 297 297 297 297 298 298 297 299 299 301 303 298 302 304 303 302 304 302 297 300 300 302 305 305 304 307 306 303 303 304 304 305 305 304 304 303 302 301 300 299 299 298 296
301 308 306 306 305 302 300 299 299 299 298 298 296 297 297 298 298 299 300 300 302 302 304 302 302 303 299 298 298 298 302 303 304 304 305 306 306 307 305 304 304 304 304 304 304 303 302 301 300 300 300 298 296 297
307 305 305 304 301 299 299 299 298 297 298 298 299 298 298 299 299 300 301 300 301 302 304 304 297 302 300 299 299 302 304 305 305 305 305 306 305 305 305 304 304 304 304 303 303 302 301 301 301 300 298 296 297 296
306 305 303 300 300 301 298 297 298 297 297 297 298 298 299 300 299 299 300 302 302 302 300 294 297 303 304 306 306 305 305 305 305 305 305 308 306 305 304 304 304 304 303 303 303 302 301 300 300 298 296 297 296 296
305 303 300 300 300 299 298 298 298 297 297 298 299 298 298 300 300 300 300 300 300 301 295 302 303 304 304 304 305 304 305 304 305 304 304 305 306 305 304 303 303 303 303 303 302 301 301 300 298 296 297 297 296 295
301 299 299 300 299 299 297 297 298 298 298 296 297 299 297 297 297 299 299 300 299 300 300 300 301 301 302 303 303 304 304 303 304 304 304 304 304 304 303 303 302 302 302 302 302 301 300 298 297 297 297 296 296 295
300 300 300 299 298 297 296 297 297 297 297 297 298 296 296 297 298 298 297 298 299 299 299 299 299 299 299 299 299 300 302 303 304 304 304 304 305 304 303 302 302 302 302 302 301 300 299 297 296 297 297 296 295 293
300 300 299 298 296 296 296 297 297 298 298 298 295 296 297 295 297 297 296 297 299 299 299 299 299 299 299 300 301 300 300 302 304 302 300 304 305 305 303 301 301 302 302 302 301 299 298 297 297 297 296 295 294 292
300 297 298 296 296 297 297 297 298 297 299 298 295 293 297 296 296 296 297 298 299 299 299 299 299 299 299 299 300 300 300 301 301 300 300 304 304 306 301 300 300 301 302 301 300 299 297 297 297 297 296 295 293 292
296 296 292 293 296 295 296 297 297 297 298 298 297 296 298 296 297 295 295 300 300 300 300 300 300 300 300 300 300 300 299 299 299 300 301 303 306 306 302 301 300 300 301 301 300 299 297 297 297 296 295 294 292 292
292 294 294 295 295 296 295 296 296 297 298 297 298 298 298 298 297 296 300 300 300 300 300 300 300 299 299 299 299 299 299 299 300 301 303 304 305 303 302 301 301 302 302 301 300 299 297 297 297 296 295 294 292 292
294 296 296 295 295 296 296 296 297 298 297 296 297 297 295 296 297 300 300 300 300 300 300 300 299 299 299 299 299 299 299 300 301 301 304 304 302 301 300 299 299 301 302 301 300 298 297 297 297 296 295 294 292 291
295 296 296 295 294 295 294 297 296 297 298 297 297 296 296 299 300 300 300 300 300 300 300 300 301 300 300 300 300 300 300 301 301 302 305 303 301 300 299 299 299 300 301 300 299 298 297 297 297 296 295 293 292 291
296 297 295 295 293 295 296 298 298 298 299 299 299 298 299 300 300 300 300 300 300 300 300 300 301 302 302 301 301 301 301 301 302 303 306 306 304 302 300 300 300 300 300 299 298 297 297 297 296 295 293 292 291 290
297 297 294 293 290 294 297 298 298 298 298 299 299 299 299 299 299 299 299 299 299 300 301 301 302 302 302 302 301 301 300 301 301 301 303 304 304 302 301 300 300 300 299 299 298 297 297 297 296 294 293 292 291 290
296 295 295 293 292 294 296 297 297 297 297 297 297 297 296 297 298 300 300 300 300 301 301 302 302 303 303 302 301 301 301 301 302 301 301 301 301 301 301 301 300 299 299 298 297 297 297 297 296 294 293 292 291 290
294 293 294 294 294 294 294 296 295 293 295 294 296 297 297 298 297 301 301 301 301 302 302 302 303 302 303 302 301 300 300 301 302 302 302 302 301 301 300 300 300 299 298 298 297 297 297 296 295 294 293 292 291 289